SWR18K LSZH-VTBS

Flight info

Callsign SWR18K
Flight time 10h 12m
Altitude 33000
Route DEGES Z2 UMVEG DCT DIMLO DCT TEGRI DCT VEVIN DCT DINRO DCT UDROS UM859 KARDE UN644 ROLIN DCT TETRO DCT BARAD M747 LUSAL N701 LARGI B701 TUGTA A909 LEMOD N644 DI A466 SULOM M890 PUMOT M890 LKN R460 CEA L507 IGONI DCT WILLA
Aircraft B77W/H-SDE1E2E3FGHIJ2J3J4J5M1RWXY/LB1D1

Departure

Time 2026-04-25 21:25
Airport Zürich Airport (LSZH)

Arrival

Time 2026-04-26 07:37
Airport Suvarnabhumi Airport (VTBS)
Time Latitude Longitude Altitude Speed Heading
2026-04-25 20:47 47.46040 8.55522 1390 ft 0 kts
2026-04-25 21:11 47.46027 8.55520 1389 ft 2 kts 12°
2026-04-25 21:11 47.46013 8.55512 1389 ft 2 kts 31°
2026-04-25 21:11 47.46001 8.55500 1389 ft 2 kts 41°
2026-04-25 21:12 47.45990 8.55484 1389 ft 2 kts 51°
2026-04-25 21:12 47.45982 8.55466 1389 ft 2 kts 62°
2026-04-25 21:12 47.45976 8.55446 1389 ft 2 kts 72°
2026-04-25 21:12 47.45973 8.55432 1389 ft 2 kts 79°
2026-04-25 21:13 47.45971 8.55403 1389 ft 2 kts 94°
2026-04-25 21:13 47.45972 8.55394 1389 ft 0 kts 97°
2026-04-25 21:17 47.45971 8.55399 1389 ft 1 kts 97°
2026-04-25 21:17 47.45969 8.55428 1389 ft 4 kts 97°
2026-04-25 21:17 47.45965 8.55483 1389 ft 6 kts 96°
2026-04-25 21:17 47.45960 8.55561 1389 ft 8 kts 96°
2026-04-25 21:18 47.45953 8.55661 1389 ft 10 kts 96°
2026-04-25 21:18 47.45944 8.55778 1389 ft 12 kts 96°
2026-04-25 21:18 47.45935 8.55907 1389 ft 11 kts 96°
2026-04-25 21:18 47.45928 8.56017 1389 ft 9 kts 95°
2026-04-25 21:19 47.45923 8.56092 1389 ft 0 kts 96°
2026-04-25 21:19 47.45923 8.56093 1389 ft 0 kts 96°
2026-04-25 21:20 47.45923 8.56106 1389 ft 3 kts 96°
2026-04-25 21:21 47.45918 8.56163 1389 ft 7 kts 96°
2026-04-25 21:21 47.45919 8.56258 1389 ft 10 kts 66°
2026-04-25 21:21 47.45977 8.56312 1389 ft 9 kts 10°
2026-04-25 21:21 47.46033 8.56323 1390 ft 7 kts
2026-04-25 21:22 47.46070 8.56342 1390 ft 5 kts 33°
2026-04-25 21:22 47.46105 8.56388 1391 ft 7 kts 45°
2026-04-25 21:22 47.46131 8.56425 1392 ft 0 kts 37°
2026-04-25 21:22 47.46139 8.56428 1392 ft 1 kts 358°
2026-04-25 21:23 47.46146 8.56421 1392 ft 1 kts 316°
2026-04-25 21:23 47.46148 8.56419 1392 ft 0 kts 317°
2026-04-25 21:23 47.46148 8.56418 1392 ft 1 kts 317°
2026-04-25 21:24 47.46189 8.56361 1392 ft 21 kts 317°
2026-04-25 21:24 47.46446 8.56006 1391 ft 79 kts 317°
2026-04-25 21:24 47.46996 8.55256 1390 ft 133 kts 317°
2026-04-25 21:24 47.47784 8.54176 1392 ft 178 kts 317°
2026-04-25 21:25 47.48754 8.52853 1660 ft 195 kts 318°
2026-04-25 21:25 47.49744 8.51494 2175 ft 191 kts 317°
2026-04-25 21:25 47.50762 8.50277 2345 ft 197 kts 339°
2026-04-25 21:25 47.52107 8.49679 2388 ft 209 kts 339°
2026-04-25 21:26 47.53299 8.48400 2542 ft 217 kts 309°
2026-04-25 21:26 47.53918 8.46352 2786 ft 220 kts 278°
2026-04-25 21:26 47.53756 8.44129 3067 ft 222 kts 249°
2026-04-25 21:26 47.53019 8.42092 3287 ft 226 kts 241°
2026-04-25 21:27 47.52278 8.40067 3581 ft 227 kts 244°
2026-04-25 21:27 47.51516 8.38020 3785 ft 232 kts 232°
2026-04-25 21:27 47.50203 8.36568 3764 ft 247 kts 199°
2026-04-25 21:27 47.48466 8.36331 3861 ft 254 kts 166°
2026-04-25 21:28 47.46910 8.37443 4166 ft 252 kts 136°
2026-04-25 21:28 47.45942 8.39537 4445 ft 251 kts 106°
2026-04-25 21:28 47.45714 8.42075 4820 ft 248 kts 90°
2026-04-25 21:28 47.45718 8.44624 5167 ft 251 kts 89°
2026-04-25 21:29 47.45728 8.47263 5274 ft 264 kts 89°
2026-04-25 21:29 47.45726 8.50022 5582 ft 269 kts 89°
2026-04-25 21:29 47.45719 8.52776 5932 ft 272 kts 89°
2026-04-25 21:29 47.45717 8.55546 6321 ft 272 kts 87°
2026-04-25 21:30 47.45820 8.58343 6676 ft 275 kts 85°
2026-04-25 21:30 47.45944 8.61176 7051 ft 276 kts 86°
2026-04-25 21:30 47.46053 8.63995 7373 ft 280 kts 86°
2026-04-25 21:30 47.46124 8.65930 7599 ft 282 kts 86°
2026-04-25 21:31 47.46264 8.69771 8148 ft 281 kts 85°
2026-04-25 21:31 47.46371 8.72645 8483 ft 283 kts 86°
2026-04-25 21:31 47.46478 8.75546 8807 ft 286 kts 86°
2026-04-25 21:31 47.46585 8.78481 9111 ft 289 kts 86°
2026-04-25 21:32 47.46680 8.81469 9447 ft 291 kts 91°
2026-04-25 21:32 47.46425 8.84417 9736 ft 294 kts 101°
2026-04-25 21:32 47.45998 8.87361 10093 ft 295 kts 102°
2026-04-25 21:32 47.45554 8.90322 10337 ft 298 kts 101°
2026-04-25 21:33 47.45115 8.93360 10549 ft 302 kts 101°
2026-04-25 21:33 47.44679 8.96426 10755 ft 312 kts 101°
2026-04-25 21:33 47.44223 8.99626 10741 ft 327 kts 101°
2026-04-25 21:33 47.43743 9.02977 10756 ft 343 kts 101°
2026-04-25 21:34 47.43240 9.06469 10790 ft 357 kts 101°
2026-04-25 21:34 47.42708 9.10156 10862 ft 371 kts 101°
2026-04-25 21:34 47.42164 9.13916 10962 ft 384 kts 101°
2026-04-25 21:34 47.41674 9.17823 11252 ft 390 kts 94°
2026-04-25 21:35 47.41644 9.21780 11697 ft 391 kts 83°
2026-04-25 21:35 47.42101 9.25771 12205 ft 391 kts 76°
2026-04-25 21:35 47.42687 9.29657 12725 ft 394 kts 75°
2026-04-25 21:35 47.43295 9.33651 13231 ft 396 kts 75°
2026-04-25 21:36 47.43889 9.37566 13789 ft 399 kts 75°
2026-04-25 21:36 47.44500 9.41604 14361 ft 402 kts 75°
2026-04-25 21:36 47.45106 9.45626 14943 ft 405 kts 75°
2026-04-25 21:36 47.45712 9.49657 15556 ft 408 kts 75°
2026-04-25 21:37 47.46328 9.53766 16159 ft 411 kts 75°
2026-04-25 21:37 47.46741 9.56531 16555 ft 413 kts 75°
2026-04-25 21:37 47.47117 9.62181 17278 ft 421 kts 88°
2026-04-25 21:37 47.46939 9.66488 17832 ft 425 kts 92°
2026-04-25 21:38 47.46701 9.70847 18363 ft 428 kts 92°
2026-04-25 21:38 47.46457 9.75265 18852 ft 432 kts 92°
2026-04-25 21:38 47.46214 9.79647 19361 ft 436 kts 92°
2026-04-25 21:38 47.45964 9.84110 19823 ft 439 kts 92°
2026-04-25 21:39 47.45709 9.88658 20324 ft 443 kts 92°
2026-04-25 21:39 47.45455 9.93153 20778 ft 446 kts 91°
2026-04-25 21:39 47.45195 9.97735 21247 ft 449 kts 91°
2026-04-25 21:39 47.44931 10.02351 21712 ft 453 kts 91°
2026-04-25 21:40 47.44664 10.06974 22143 ft 456 kts 91°
2026-04-25 21:40 47.44393 10.11644 22575 ft 460 kts 91°
2026-04-25 21:40 47.44118 10.16349 23014 ft 462 kts 91°
2026-04-25 21:40 47.43650 10.21022 23422 ft 468 kts 97°
2026-04-25 21:41 47.43025 10.25745 23825 ft 472 kts 97°
2026-04-25 21:41 47.42380 10.30516 24261 ft 475 kts 97°
2026-04-25 21:41 47.41739 10.35247 24727 ft 477 kts 98°
2026-04-25 21:41 47.41080 10.40105 25125 ft 480 kts 98°
2026-04-25 21:42 47.40429 10.44892 25500 ft 483 kts 98°
2026-04-25 21:42 47.39767 10.49738 25883 ft 486 kts 98°
2026-04-25 21:42 47.39099 10.54594 26269 ft 488 kts 98°
2026-04-25 21:42 47.38416 10.59533 26649 ft 491 kts 98°
2026-04-25 21:43 47.37733 10.64465 27028 ft 494 kts 98°
2026-04-25 21:43 47.37048 10.69394 27387 ft 496 kts 99°
2026-04-25 21:43 47.36346 10.74428 27728 ft 499 kts 99°
2026-04-25 21:43 47.35651 10.79396 28075 ft 502 kts 99°
2026-04-25 21:44 47.34937 10.84481 28428 ft 504 kts 99°
2026-04-25 21:44 47.34231 10.89495 28803 ft 506 kts 99°
2026-04-25 21:44 47.32795 10.99647 29475 ft 511 kts 99°
2026-04-25 21:45 47.32057 11.04829 29926 ft 511 kts 99°
2026-04-25 21:45 47.31575 11.08210 30279 ft 509 kts 99°
2026-04-25 21:45 47.30604 11.14988 30938 ft 507 kts 99°
2026-04-25 21:45 47.29877 11.20048 31203 ft 509 kts 99°
2026-04-25 21:46 47.29142 11.25151 31173 ft 510 kts 99°
2026-04-25 21:46 47.27673 11.35281 31160 ft 507 kts 99°
2026-04-25 21:47 47.26202 11.45375 31158 ft 509 kts 99°
2026-04-25 21:47 47.24844 11.55534 31211 ft 505 kts 93°
2026-04-25 21:48 47.24191 11.65795 31226 ft 505 kts 92°
2026-04-25 21:48 47.23558 11.76074 31216 ft 506 kts 92°
2026-04-25 21:49 47.22918 11.86335 31208 ft 506 kts 92°
2026-04-25 21:49 47.22267 11.96600 31208 ft 505 kts 92°
2026-04-25 21:50 47.21606 12.06893 31199 ft 505 kts 92°
2026-04-25 21:50 47.20940 12.17108 31211 ft 505 kts 92°
2026-04-25 21:51 47.20261 12.27392 31219 ft 505 kts 92°
2026-04-25 21:51 47.19573 12.37662 31217 ft 505 kts 92°
2026-04-25 21:52 47.18878 12.47905 31220 ft 504 kts 92°
2026-04-25 21:52 47.18176 12.58105 31208 ft 503 kts 92°
2026-04-25 21:53 47.17463 12.68332 31193 ft 504 kts 93°
2026-04-25 21:53 47.16748 12.78470 31186 ft 504 kts 93°
2026-04-25 21:54 47.16017 12.88683 31174 ft 504 kts 93°
2026-04-25 21:54 47.15275 12.98935 31168 ft 506 kts 93°
2026-04-25 21:55 47.14526 13.09146 31153 ft 504 kts 93°
2026-04-25 21:55 47.13766 13.19384 31157 ft 505 kts 93°
2026-04-25 21:56 47.13002 13.29553 31166 ft 503 kts 93°
2026-04-25 21:56 47.12225 13.39771 31166 ft 504 kts 93°
2026-04-25 21:57 47.11443 13.49929 31165 ft 504 kts 93°
2026-04-25 21:57 47.10653 13.60077 31171 ft 504 kts 93°
2026-04-25 21:58 47.09843 13.70359 31172 ft 505 kts 94°
2026-04-25 21:58 47.09032 13.80532 31180 ft 505 kts 94°
2026-04-25 21:59 47.08212 13.90710 31184 ft 505 kts 94°
2026-04-25 21:59 47.07381 14.00903 31172 ft 505 kts 94°
2026-04-25 22:00 47.06112 14.16257 31163 ft 505 kts 94°
2026-04-25 22:00 47.05259 14.26433 31141 ft 507 kts 94°
2026-04-25 22:01 47.04386 14.36743 31137 ft 508 kts 94°
2026-04-25 22:01 47.03657 14.45269 31123 ft 508 kts 94°
2026-04-25 22:02 47.02620 14.57260 31105 ft 509 kts 95°
2026-04-25 22:02 47.01723 14.67514 31097 ft 509 kts 96°
2026-04-25 22:03 47.00815 14.77786 31097 ft 511 kts 96°
2026-04-25 22:03 46.99891 14.88121 31097 ft 510 kts 96°
2026-04-25 22:04 46.98966 14.98370 31086 ft 512 kts 96°
2026-04-25 22:04 46.98031 15.08629 31074 ft 512 kts 96°
2026-04-25 22:05 46.97076 15.18992 31073 ft 512 kts 96°
2026-04-25 22:05 46.96120 15.29270 31055 ft 515 kts 96°
2026-04-25 22:06 46.95145 15.39642 31045 ft 515 kts 96°
2026-04-25 22:06 46.94158 15.50042 31040 ft 516 kts 96°
2026-04-25 22:07 46.93333 15.58651 31045 ft 516 kts 96°
2026-04-25 22:07 46.92171 15.70671 31050 ft 519 kts 97°
2026-04-25 22:08 46.91166 15.80957 31049 ft 518 kts 97°
2026-04-25 22:08 46.90138 15.91380 31047 ft 519 kts 97°
2026-04-25 22:09 46.89103 16.01767 31043 ft 520 kts 97°
2026-04-25 22:09 46.88111 16.11633 31039 ft 521 kts 97°
2026-04-25 22:10 46.87047 16.22119 31037 ft 521 kts 97°
2026-04-25 22:10 46.85974 16.32594 31030 ft 523 kts 97°
2026-04-25 22:11 46.84892 16.43066 31030 ft 522 kts 97°
2026-04-25 22:11 46.83802 16.53511 31010 ft 524 kts 97°
2026-04-25 22:12 46.82697 16.64009 31014 ft 524 kts 97°
2026-04-25 22:12 46.81783 16.72623 31007 ft 524 kts 98°
2026-04-25 22:13 46.80470 16.84885 31012 ft 525 kts 98°
2026-04-25 22:13 46.79337 16.95360 31009 ft 525 kts 98°
2026-04-25 22:14 46.78190 17.05877 31009 ft 524 kts 98°
2026-04-25 22:14 46.77035 17.16373 31010 ft 527 kts 98°
2026-04-25 22:15 46.75865 17.26906 31009 ft 526 kts 98°
2026-04-25 22:16 46.74088 17.42742 31007 ft 528 kts 98°
2026-04-25 22:16 46.72892 17.53288 31007 ft 529 kts 98°
2026-04-25 22:17 46.71690 17.63794 31008 ft 528 kts 98°
2026-04-25 22:17 46.70476 17.74315 30999 ft 529 kts 99°
2026-04-25 22:18 46.69252 17.84841 30996 ft 528 kts 99°
2026-04-25 22:18 46.68016 17.95368 30999 ft 529 kts 99°
2026-04-25 22:19 46.66777 18.05844 31001 ft 528 kts 99°
2026-04-25 22:19 46.65517 18.16417 31001 ft 530 kts 99°
2026-04-25 22:20 46.64258 18.26886 30996 ft 530 kts 99°
2026-04-25 22:20 46.62979 18.37438 30996 ft 530 kts 99°
2026-04-25 22:21 46.61691 18.47985 30996 ft 531 kts 99°
2026-04-25 22:21 46.60389 18.58557 30997 ft 531 kts 99°
2026-04-25 22:22 46.59090 18.69018 30975 ft 532 kts 100°
2026-04-25 22:22 46.57769 18.79576 30969 ft 530 kts 100°
2026-04-25 22:23 46.56442 18.90101 30969 ft 531 kts 100°
2026-04-25 22:23 46.55101 19.00660 30973 ft 532 kts 100°
2026-04-25 22:24 46.53749 19.11215 30968 ft 532 kts 100°
2026-04-25 22:24 46.52396 19.21698 30967 ft 533 kts 100°
2026-04-25 22:25 46.51021 19.32277 30962 ft 534 kts 100°
2026-04-25 22:25 46.49636 19.42851 30968 ft 534 kts 100°
2026-04-25 22:26 46.48246 19.53383 30970 ft 534 kts 100°
2026-04-25 22:26 46.46838 19.63973 30971 ft 535 kts 100°
2026-04-25 22:27 46.45428 19.74494 30964 ft 534 kts 101°
2026-04-25 22:27 46.44000 19.85076 30963 ft 535 kts 101°
2026-04-25 22:28 46.42574 19.95572 30960 ft 535 kts 101°
2026-04-25 22:28 46.41123 20.06165 30963 ft 536 kts 101°
2026-04-25 22:29 46.39668 20.16713 30964 ft 534 kts 101°
2026-04-25 22:29 46.38207 20.27230 30964 ft 536 kts 101°
2026-04-25 22:30 46.35988 20.43062 30966 ft 537 kts 101°
2026-04-25 22:30 46.34748 20.51841 30962 ft 536 kts 101°
2026-04-25 22:31 46.32991 20.64181 30963 ft 536 kts 101°
2026-04-25 22:31 46.31485 20.74692 30956 ft 536 kts 102°
2026-04-25 22:32 46.29964 20.85218 30963 ft 535 kts 102°
2026-04-25 22:32 46.28433 20.95754 30957 ft 538 kts 102°
2026-04-25 22:33 46.26902 21.06213 30967 ft 537 kts 102°
2026-04-25 22:33 46.24714 21.16555 30965 ft 537 kts 110°
2026-04-25 22:34 46.22222 21.26648 30970 ft 535 kts 110°
2026-04-25 22:34 46.19715 21.36711 30973 ft 536 kts 110°
2026-04-25 22:35 46.17182 21.46813 30978 ft 535 kts 110°
2026-04-25 22:35 46.14641 21.56888 30971 ft 535 kts 110°
2026-04-25 22:36 46.12110 21.66875 30977 ft 536 kts 110°
2026-04-25 22:36 46.09535 21.76988 30970 ft 535 kts 111°
2026-04-25 22:37 46.06965 21.87036 30974 ft 536 kts 111°
2026-04-25 22:37 46.04403 21.97004 30979 ft 534 kts 111°
2026-04-25 22:38 46.01815 22.07034 30995 ft 535 kts 111°
2026-04-25 22:38 45.99226 22.17022 30992 ft 534 kts 110°
2026-04-25 22:39 45.96637 22.26970 30995 ft 534 kts 110°
2026-04-25 22:39 45.94026 22.36956 30987 ft 536 kts 110°
2026-04-25 22:40 45.91405 22.46938 31002 ft 535 kts 110°
2026-04-25 22:40 45.88776 22.56912 31011 ft 535 kts 110°
2026-04-25 22:41 45.86144 22.66853 30995 ft 533 kts 111°
2026-04-25 22:41 45.83508 22.76767 30988 ft 534 kts 111°
2026-04-25 22:42 45.80837 22.86769 30983 ft 534 kts 111°
2026-04-25 22:42 45.78189 22.96644 30983 ft 533 kts 111°
2026-04-25 22:43 45.75541 23.06479 30980 ft 534 kts 111°
2026-04-25 22:43 45.72869 23.16360 30978 ft 533 kts 111°
2026-04-25 22:44 45.70173 23.26290 30990 ft 534 kts 111°
2026-04-25 22:44 45.67482 23.36161 31001 ft 533 kts 111°
2026-04-25 22:45 45.64791 23.45989 31018 ft 534 kts 111°
2026-04-25 22:45 45.62085 23.55834 31017 ft 533 kts 111°
2026-04-25 22:46 45.59385 23.65619 31020 ft 532 kts 112°
2026-04-25 22:46 45.56673 23.75407 31014 ft 532 kts 112°
2026-04-25 22:47 45.53950 23.85191 31018 ft 532 kts 112°
2026-04-25 22:47 45.51220 23.94964 31017 ft 534 kts 112°
2026-04-25 22:48 45.48476 24.04747 31016 ft 533 kts 112°
2026-04-25 22:48 45.45726 24.14512 31014 ft 533 kts 112°
2026-04-25 22:49 45.42970 24.24259 31007 ft 533 kts 112°
2026-04-25 22:49 45.40196 24.34030 31009 ft 531 kts 112°
2026-04-25 22:50 45.37432 24.43730 31018 ft 532 kts 112°
2026-04-25 22:50 45.34639 24.53490 31019 ft 532 kts 112°
2026-04-25 22:51 45.31854 24.63187 31019 ft 531 kts 112°
2026-04-25 22:51 45.29071 24.72837 31008 ft 532 kts 112°
2026-04-25 22:52 45.26269 24.82515 31001 ft 532 kts 112°
2026-04-25 22:52 45.23463 24.92169 30979 ft 533 kts 112°
2026-04-25 22:53 45.20629 25.01883 30972 ft 531 kts 112°
2026-04-25 22:53 45.17814 25.11492 30979 ft 532 kts 112°
2026-04-25 22:54 45.14978 25.21137 30981 ft 531 kts 112°
2026-04-25 22:54 45.12126 25.30799 30981 ft 532 kts 112°
2026-04-25 22:55 45.09288 25.40379 30978 ft 531 kts 112°
2026-04-25 22:55 45.06419 25.50024 30970 ft 530 kts 112°
2026-04-25 22:56 45.03581 25.59528 30964 ft 528 kts 112°
2026-04-25 22:56 45.00712 25.69101 30952 ft 530 kts 113°
2026-04-25 22:57 44.97826 25.78692 30948 ft 530 kts 113°
2026-04-25 22:57 44.94953 25.88205 30950 ft 530 kts 113°
2026-04-25 22:58 44.92073 25.97707 30951 ft 530 kts 113°
2026-04-25 22:58 44.89164 26.07270 30950 ft 530 kts 113°
2026-04-25 22:59 44.86261 26.16775 30949 ft 528 kts 113°
2026-04-25 22:59 44.83353 26.26261 30952 ft 529 kts 113°
2026-04-25 23:00 44.80436 26.35742 30950 ft 528 kts 113°
2026-04-25 23:00 44.77526 26.45165 30951 ft 528 kts 113°
2026-04-25 23:01 44.74598 26.54611 30956 ft 528 kts 113°
2026-04-25 23:01 44.71614 26.63933 30943 ft 528 kts 118°
2026-04-25 23:02 44.67779 26.72796 30941 ft 527 kts 123°
2026-04-25 23:02 44.63888 26.81441 30942 ft 528 kts 123°
2026-04-25 23:03 44.59956 26.90113 30941 ft 526 kts 123°
2026-04-25 23:03 44.56015 26.98759 30943 ft 526 kts 123°
2026-04-25 23:04 44.52081 27.07353 30951 ft 525 kts 122°
2026-04-25 23:04 44.48157 27.15895 30950 ft 526 kts 122°
2026-04-25 23:05 44.44198 27.24484 30951 ft 525 kts 122°
2026-04-25 23:05 44.40248 27.33024 30949 ft 525 kts 122°
2026-04-25 23:06 44.36293 27.41551 30954 ft 525 kts 122°
2026-04-25 23:06 44.32315 27.50102 30960 ft 525 kts 122°
2026-04-25 23:07 44.28346 27.58606 30959 ft 524 kts 122°
2026-04-25 23:07 44.24368 27.67106 30961 ft 525 kts 123°
2026-04-25 23:08 44.20372 27.75615 30958 ft 525 kts 123°
2026-04-25 23:08 44.16411 27.84030 30964 ft 524 kts 123°
2026-04-25 23:09 44.12397 27.92531 30962 ft 522 kts 123°
2026-04-25 23:09 44.08413 28.00943 30963 ft 523 kts 123°
2026-04-25 23:10 44.04441 28.09306 30968 ft 522 kts 123°
2026-04-25 23:10 44.00456 28.17673 30975 ft 520 kts 122°
2026-04-25 23:11 43.96476 28.26004 30974 ft 520 kts 122°
2026-04-25 23:11 43.92456 28.34396 30975 ft 519 kts 122°
2026-04-25 23:12 43.88484 28.42663 30971 ft 518 kts 122°
2026-04-25 23:12 43.84474 28.50987 30973 ft 518 kts 122°
2026-04-25 23:13 43.80487 28.59238 30975 ft 517 kts 122°
2026-04-25 23:13 43.76498 28.67470 30972 ft 519 kts 123°
2026-04-25 23:14 43.72508 28.75682 30976 ft 515 kts 123°
2026-04-25 23:14 43.68476 28.83869 30978 ft 516 kts 125°
2026-04-25 23:15 43.64259 28.91900 30978 ft 514 kts 125°
2026-04-25 23:15 43.60091 28.99816 30980 ft 514 kts 125°
2026-04-25 23:16 43.55867 29.07834 30981 ft 514 kts 125°
2026-04-25 23:16 43.51691 29.15749 30983 ft 513 kts 125°
2026-04-25 23:17 43.47515 29.23646 30981 ft 514 kts 125°
2026-04-25 23:17 43.43302 29.31594 30984 ft 513 kts 125°
2026-04-25 23:18 43.39118 29.39468 30986 ft 511 kts 125°
2026-04-25 23:18 43.34948 29.47296 30986 ft 512 kts 125°
2026-04-25 23:19 43.30723 29.55205 30990 ft 512 kts 125°
2026-04-25 23:19 43.26510 29.63072 30990 ft 511 kts 125°
2026-04-25 23:20 43.22312 29.70890 30989 ft 512 kts 126°
2026-04-25 23:20 43.18112 29.78691 30990 ft 509 kts 126°
2026-04-25 23:21 43.13930 29.86439 30994 ft 507 kts 126°
2026-04-25 23:21 43.09739 29.94183 30989 ft 509 kts 126°
2026-04-25 23:22 43.05503 30.01990 30987 ft 510 kts 126°
2026-04-25 23:23 42.99213 30.13542 30996 ft 509 kts 126°
2026-04-25 23:23 42.94975 30.21302 31002 ft 508 kts 126°
2026-04-25 23:24 42.90762 30.28996 31014 ft 507 kts 126°
2026-04-25 23:24 42.86569 30.36634 31013 ft 507 kts 126°
2026-04-25 23:25 42.82342 30.44313 31013 ft 506 kts 126°
2026-04-25 23:25 42.78112 30.51978 31013 ft 507 kts 126°
2026-04-25 23:26 42.74539 30.60132 31013 ft 504 kts 110°
2026-04-25 23:26 42.72844 30.69309 31021 ft 502 kts 96°
2026-04-25 23:27 42.71915 30.78714 31009 ft 501 kts 96°
2026-04-25 23:27 42.70976 30.88100 31016 ft 502 kts 96°
2026-04-25 23:28 42.70024 30.97454 31016 ft 502 kts 96°
2026-04-25 23:28 42.69059 31.06797 31019 ft 502 kts 96°
2026-04-25 23:29 42.68080 31.16166 31014 ft 502 kts 96°
2026-04-25 23:29 42.67092 31.25546 31013 ft 501 kts 96°
2026-04-25 23:30 42.66103 31.34839 31009 ft 501 kts 96°
2026-04-25 23:30 42.65101 31.44185 31013 ft 502 kts 96°
2026-04-25 23:31 42.64088 31.53559 31015 ft 502 kts 96°
2026-04-25 23:31 42.63070 31.62901 31009 ft 502 kts 96°
2026-04-25 23:32 42.62048 31.72204 31007 ft 502 kts 97°
2026-04-25 23:32 42.61008 31.81590 31005 ft 501 kts 97°
2026-04-25 23:33 42.59971 31.90897 31008 ft 503 kts 97°
2026-04-25 23:33 42.58924 32.00206 31011 ft 502 kts 97°
2026-04-25 23:34 42.57883 32.09546 31005 ft 501 kts 97°
2026-04-25 23:34 42.56815 32.18909 31009 ft 503 kts 97°
2026-04-25 23:35 42.55742 32.28236 31007 ft 503 kts 97°
2026-04-25 23:35 42.54664 32.37550 31006 ft 502 kts 97°
2026-04-25 23:36 42.53576 32.46872 31004 ft 502 kts 97°
2026-04-25 23:36 42.52486 32.56151 31004 ft 503 kts 97°
2026-04-25 23:37 42.51385 32.65451 31008 ft 502 kts 98°
2026-04-25 23:37 42.50275 32.74771 31002 ft 502 kts 98°
2026-04-25 23:38 42.49157 32.84084 31000 ft 502 kts 98°
2026-04-25 23:38 42.48037 32.93348 31004 ft 502 kts 98°
2026-04-25 23:39 42.46901 33.02678 31002 ft 501 kts 98°
2026-04-25 23:39 42.45766 33.11935 31001 ft 502 kts 98°
2026-04-25 23:40 42.44619 33.21215 31000 ft 503 kts 98°
2026-04-25 23:40 42.43453 33.30580 31000 ft 503 kts 98°
2026-04-25 23:41 42.42292 33.39840 31001 ft 504 kts 98°
2026-04-25 23:41 42.41119 33.49142 31002 ft 503 kts 98°
2026-04-25 23:42 42.39938 33.58449 31000 ft 503 kts 98°
2026-04-25 23:42 42.38748 33.67762 30996 ft 502 kts 99°
2026-04-25 23:43 42.37555 33.77037 30998 ft 503 kts 99°
2026-04-25 23:43 42.36354 33.86316 31003 ft 504 kts 99°
2026-04-25 23:44 42.35140 33.95644 30995 ft 504 kts 99°
2026-04-25 23:44 42.33930 34.04905 30999 ft 504 kts 99°
2026-04-25 23:45 42.32707 34.14204 30998 ft 505 kts 99°
2026-04-25 23:45 42.31477 34.23491 31003 ft 505 kts 99°
2026-04-25 23:46 42.30235 34.32812 31002 ft 504 kts 99°
2026-04-25 23:46 42.28985 34.42128 31002 ft 505 kts 99°
2026-04-25 23:47 42.27727 34.51433 31000 ft 507 kts 100°
2026-04-25 23:47 42.26462 34.60729 30998 ft 506 kts 100°
2026-04-25 23:48 42.25187 34.70036 30995 ft 506 kts 101°
2026-04-25 23:48 42.23901 34.79371 30995 ft 507 kts 101°
2026-04-25 23:49 42.22605 34.88701 30994 ft 506 kts 101°
2026-04-25 23:49 42.21311 34.97945 30996 ft 508 kts 101°
2026-04-25 23:50 42.19993 35.07310 30998 ft 507 kts 101°
2026-04-25 23:50 42.18678 35.16594 30997 ft 508 kts 101°
2026-04-25 23:51 42.17351 35.25906 30995 ft 509 kts 101°
2026-04-25 23:51 42.16012 35.35242 30992 ft 508 kts 101°
2026-04-25 23:52 42.14671 35.44549 30990 ft 509 kts 101°
2026-04-25 23:52 42.13323 35.53862 30986 ft 508 kts 101°
2026-04-25 23:53 42.11962 35.63215 30993 ft 509 kts 101°
2026-04-25 23:53 42.10600 35.72517 30989 ft 508 kts 102°
2026-04-25 23:54 42.09237 35.81766 30987 ft 507 kts 102°
2026-04-25 23:54 42.07854 35.91097 30991 ft 508 kts 102°
2026-04-25 23:55 42.06472 36.00365 30991 ft 508 kts 102°
2026-04-25 23:55 42.05080 36.09647 30993 ft 508 kts 102°
2026-04-25 23:56 42.03684 36.18908 30999 ft 510 kts 102°
2026-04-25 23:56 42.02274 36.28203 31001 ft 508 kts 102°
2026-04-25 23:57 42.00860 36.37471 31004 ft 509 kts 102°
2026-04-25 23:57 41.99439 36.46735 31005 ft 508 kts 102°
2026-04-25 23:58 41.98005 36.56027 31009 ft 508 kts 102°
2026-04-25 23:58 41.96568 36.65288 31012 ft 507 kts 103°
2026-04-25 23:59 41.95127 36.74521 31008 ft 507 kts 103°
2026-04-25 23:59 41.93682 36.83731 31012 ft 507 kts 103°
2026-04-26 00:00 41.92216 36.93018 31014 ft 507 kts 103°
2026-04-26 00:00 41.90757 37.02249 31008 ft 508 kts 102°
2026-04-26 00:01 41.90244 37.11656 31015 ft 509 kts 91°
2026-04-26 00:01 41.90128 37.21101 31017 ft 509 kts 91°
2026-04-26 00:02 41.89997 37.30570 31019 ft 509 kts 91°
2026-04-26 00:02 41.89852 37.40068 31026 ft 508 kts 91°
2026-04-26 00:03 41.89698 37.49493 31035 ft 509 kts 91°
2026-04-26 00:03 41.89533 37.58921 31037 ft 509 kts 91°
2026-04-26 00:04 41.89360 37.68389 31034 ft 509 kts 92°
2026-04-26 00:04 41.89178 37.77881 31034 ft 509 kts 92°
2026-04-26 00:05 41.88988 37.87351 31034 ft 508 kts 92°
2026-04-26 00:05 41.88791 37.96764 31035 ft 507 kts 92°
2026-04-26 00:06 41.88586 38.06210 31038 ft 508 kts 92°
2026-04-26 00:06 41.88373 38.15636 31041 ft 510 kts 92°
2026-04-26 00:07 41.88152 38.25120 31042 ft 508 kts 92°
2026-04-26 00:07 41.87923 38.34546 31047 ft 508 kts 92°
2026-04-26 00:08 41.87688 38.43970 31045 ft 508 kts 92°
2026-04-26 00:08 41.87443 38.53447 31038 ft 509 kts 92°
2026-04-26 00:09 41.87191 38.62900 31035 ft 509 kts 92°
2026-04-26 00:09 41.86930 38.72363 31035 ft 510 kts 93°
2026-04-26 00:10 41.86664 38.81782 31029 ft 510 kts 93°
2026-04-26 00:10 41.86386 38.91310 31030 ft 509 kts 93°
2026-04-26 00:11 41.86103 39.00758 31030 ft 511 kts 93°
2026-04-26 00:11 41.85811 39.10240 31032 ft 510 kts 93°
2026-04-26 00:12 41.85513 39.19689 31032 ft 511 kts 93°
2026-04-26 00:12 41.85203 39.29232 31033 ft 512 kts 93°
2026-04-26 00:13 41.84887 39.38727 31033 ft 512 kts 93°
2026-04-26 00:13 41.84565 39.48184 31034 ft 511 kts 93°
2026-04-26 00:14 41.84232 39.57740 31035 ft 513 kts 93°
2026-04-26 00:14 41.83892 39.67270 31031 ft 513 kts 94°
2026-04-26 00:15 41.83544 39.76813 31031 ft 514 kts 94°
2026-04-26 00:15 41.83188 39.86356 31031 ft 515 kts 94°
2026-04-26 00:16 41.82825 39.95896 31031 ft 515 kts 94°
2026-04-26 00:16 41.82453 40.05419 31030 ft 516 kts 94°
2026-04-26 00:17 41.82070 40.15039 31032 ft 518 kts 94°
2026-04-26 00:17 41.81679 40.24635 31029 ft 517 kts 94°
2026-04-26 00:18 41.81279 40.34252 31035 ft 518 kts 94°
2026-04-26 00:18 41.80871 40.43857 31037 ft 518 kts 94°
2026-04-26 00:19 41.80457 40.53419 31044 ft 517 kts 94°
2026-04-26 00:19 41.80033 40.63029 31049 ft 519 kts 94°
2026-04-26 00:20 41.79584 40.72649 31051 ft 518 kts 95°
2026-04-26 00:20 41.79110 40.82301 31050 ft 520 kts 95°
2026-04-26 00:21 41.78631 40.91914 31053 ft 520 kts 95°
2026-04-26 00:21 41.78144 41.01544 31059 ft 521 kts 95°
2026-04-26 00:22 41.77648 41.11174 31060 ft 521 kts 95°
2026-04-26 00:22 41.77141 41.20879 31063 ft 523 kts 95°
2026-04-26 00:23 41.76628 41.30544 31067 ft 522 kts 95°
2026-04-26 00:23 41.76107 41.40192 31068 ft 525 kts 95°
2026-04-26 00:24 41.75575 41.49902 31077 ft 524 kts 95°
2026-04-26 00:24 41.75036 41.59587 31074 ft 526 kts 95°
2026-04-26 00:25 41.74484 41.69371 31069 ft 526 kts 96°
2026-04-26 00:25 41.73927 41.79077 31080 ft 527 kts 96°
2026-04-26 00:26 41.73357 41.88869 31085 ft 527 kts 96°
2026-04-26 00:26 41.72784 41.98568 31123 ft 529 kts 96°
2026-04-26 00:27 41.72198 42.08343 31136 ft 530 kts 96°
2026-04-26 00:27 41.71603 42.18147 31144 ft 529 kts 96°
2026-04-26 00:28 41.70998 42.27958 31162 ft 529 kts 96°
2026-04-26 00:28 41.70388 42.37732 31171 ft 528 kts 96°
2026-04-26 00:29 41.69768 42.47514 31181 ft 530 kts 96°
2026-04-26 00:29 41.69142 42.57258 31169 ft 529 kts 96°
2026-04-26 00:30 41.68506 42.67027 31186 ft 530 kts 97°
2026-04-26 00:30 41.67859 42.76848 31195 ft 529 kts 97°
2026-04-26 00:31 41.67134 42.86630 31199 ft 528 kts 101°
2026-04-26 00:31 41.65903 42.96241 31207 ft 528 kts 102°
2026-04-26 00:32 41.64627 43.05887 31209 ft 529 kts 102°
2026-04-26 00:32 41.62696 43.20352 31214 ft 528 kts 102°
2026-04-26 00:33 41.61399 43.29997 31214 ft 529 kts 102°
2026-04-26 00:33 41.60092 43.39650 31224 ft 529 kts 102°
2026-04-26 00:34 41.58781 43.49268 31224 ft 530 kts 102°
2026-04-26 00:34 41.57456 43.58929 31226 ft 530 kts 102°
2026-04-26 00:35 41.56122 43.68593 31216 ft 531 kts 103°
2026-04-26 00:35 41.54785 43.78215 31235 ft 529 kts 103°
2026-04-26 00:36 41.53440 43.87835 31223 ft 530 kts 103°
2026-04-26 00:36 41.52085 43.97465 31222 ft 532 kts 103°
2026-04-26 00:37 41.50720 44.07101 31231 ft 531 kts 103°
2026-04-26 00:37 41.49337 44.16805 31247 ft 532 kts 103°
2026-04-26 00:38 41.47952 44.26458 31248 ft 532 kts 103°
2026-04-26 00:38 41.46566 44.36070 31257 ft 532 kts 103°
2026-04-26 00:39 41.45157 44.45768 31258 ft 534 kts 103°
2026-04-26 00:39 41.43744 44.55439 31262 ft 533 kts 103°
2026-04-26 00:40 41.42336 44.65021 31263 ft 532 kts 103°
2026-04-26 00:40 41.40898 44.74737 31260 ft 533 kts 104°
2026-04-26 00:41 41.39469 44.84340 31263 ft 533 kts 104°
2026-04-26 00:41 41.38018 44.94030 31269 ft 534 kts 104°
2026-04-26 00:42 41.36563 45.03694 31270 ft 535 kts 103°
2026-04-26 00:42 41.34615 45.13142 31270 ft 533 kts 111°
2026-04-26 00:43 41.32247 45.22434 31273 ft 530 kts 112°
2026-04-26 00:43 41.29868 45.31694 31276 ft 533 kts 112°
2026-04-26 00:44 41.27472 45.40984 31278 ft 531 kts 112°
2026-04-26 00:44 41.25065 45.50276 31287 ft 533 kts 112°
2026-04-26 00:45 41.22648 45.59570 31274 ft 533 kts 112°
2026-04-26 00:45 41.20229 45.68828 31260 ft 533 kts 113°
2026-04-26 00:46 41.17796 45.78072 31251 ft 534 kts 113°
2026-04-26 00:46 41.15340 45.87368 31250 ft 533 kts 113°
2026-04-26 00:47 41.12904 45.96557 31265 ft 533 kts 113°
2026-04-26 00:47 41.10428 46.05859 31268 ft 535 kts 113°
2026-04-26 00:48 41.07951 46.15129 31271 ft 535 kts 113°
2026-04-26 00:48 41.05470 46.24383 31272 ft 536 kts 113°
2026-04-26 00:49 41.02990 46.33622 31272 ft 535 kts 112°
2026-04-26 00:49 41.00511 46.42910 31271 ft 536 kts 112°
2026-04-26 00:50 40.98033 46.52155 31267 ft 536 kts 112°
2026-04-26 00:50 40.95531 46.61453 31267 ft 537 kts 113°
2026-04-26 00:51 40.93032 46.70707 31261 ft 536 kts 113°
2026-04-26 00:51 40.90532 46.79930 31265 ft 536 kts 114°
2026-04-26 00:52 40.88009 46.89177 31269 ft 537 kts 114°
2026-04-26 00:52 40.85468 46.98443 31276 ft 535 kts 114°
2026-04-26 00:53 40.82928 47.07664 31281 ft 537 kts 114°
2026-04-26 00:53 40.80385 47.16864 31269 ft 535 kts 113°
2026-04-26 00:54 40.77826 47.26029 31272 ft 536 kts 113°
2026-04-26 00:54 40.75243 47.35247 31274 ft 535 kts 114°
2026-04-26 00:55 40.72663 47.44432 31278 ft 536 kts 114°
2026-04-26 00:55 40.70095 47.53567 31278 ft 535 kts 114°
2026-04-26 00:56 40.67500 47.62767 31277 ft 535 kts 114°
2026-04-26 00:56 40.64912 47.71907 31268 ft 537 kts 114°
2026-04-26 00:57 40.62307 47.81076 31274 ft 536 kts 114°
2026-04-26 00:57 40.59693 47.90252 31273 ft 538 kts 113°
2026-04-26 00:58 40.58112 47.99888 31272 ft 543 kts 96°
2026-04-26 00:58 40.57650 48.09782 31275 ft 544 kts 95°
2026-04-26 00:59 40.57214 48.19664 31273 ft 543 kts 95°
2026-04-26 00:59 40.56764 48.29544 31271 ft 543 kts 95°
2026-04-26 01:00 40.56303 48.39426 31267 ft 545 kts 95°
2026-04-26 01:00 40.55831 48.49313 31261 ft 544 kts 95°
2026-04-26 01:01 40.55349 48.59210 31259 ft 544 kts 95°
2026-04-26 01:01 40.54861 48.69051 31242 ft 543 kts 96°
2026-04-26 01:02 40.54362 48.78928 31237 ft 544 kts 96°
2026-04-26 01:02 40.53853 48.88844 31241 ft 543 kts 96°
2026-04-26 01:03 40.53338 48.98708 31234 ft 544 kts 95°
2026-04-26 01:03 40.52842 49.08054 31223 ft 543 kts 96°
2026-04-26 01:04 40.52309 49.17947 31238 ft 544 kts 96°
2026-04-26 01:04 40.51769 49.27793 31234 ft 543 kts 96°
2026-04-26 01:05 40.51217 49.37714 31244 ft 545 kts 96°
2026-04-26 01:05 40.50660 49.47597 31245 ft 544 kts 96°
2026-04-26 01:06 40.50096 49.57446 31256 ft 545 kts 95°
2026-04-26 01:06 40.49520 49.67359 31256 ft 544 kts 96°
2026-04-26 01:07 40.48940 49.77208 31250 ft 543 kts 96°
2026-04-26 01:07 40.48351 49.87043 31261 ft 543 kts 96°
2026-04-26 01:08 40.47752 49.96915 31262 ft 542 kts 96°
2026-04-26 01:08 40.47019 50.06791 31271 ft 542 kts 101°
2026-04-26 01:09 40.45746 50.16494 31281 ft 542 kts 102°
2026-04-26 01:09 40.44440 50.26207 31278 ft 541 kts 102°
2026-04-26 01:10 40.43130 50.35896 31277 ft 541 kts 102°
2026-04-26 01:10 40.41808 50.45625 31282 ft 541 kts 102°
2026-04-26 01:11 40.40486 50.55297 31290 ft 541 kts 102°
2026-04-26 01:11 40.39150 50.65012 31292 ft 542 kts 103°
2026-04-26 01:12 40.37814 50.74667 31279 ft 541 kts 102°
2026-04-26 01:12 40.36458 50.84405 31280 ft 542 kts 103°
2026-04-26 01:13 40.35102 50.94074 31276 ft 541 kts 102°
2026-04-26 01:13 40.33745 51.03698 31271 ft 541 kts 103°
2026-04-26 01:14 40.32367 51.13408 31272 ft 540 kts 102°
2026-04-26 01:14 40.30986 51.23076 31270 ft 542 kts 103°
2026-04-26 01:15 40.29604 51.32697 31272 ft 539 kts 102°
2026-04-26 01:15 40.28213 51.42314 31273 ft 539 kts 102°
2026-04-26 01:16 40.26805 51.51996 31271 ft 541 kts 102°
2026-04-26 01:16 40.25389 51.61673 31273 ft 539 kts 102°
2026-04-26 01:17 40.23978 51.71261 31261 ft 539 kts 103°
2026-04-26 01:17 40.22559 51.80848 31258 ft 539 kts 103°
2026-04-26 01:18 40.21122 51.90490 31264 ft 539 kts 103°
2026-04-26 01:18 40.19688 52.00065 31263 ft 539 kts 103°
2026-04-26 01:19 40.18244 52.09644 31262 ft 537 kts 103°
2026-04-26 01:19 40.16798 52.19178 31264 ft 538 kts 103°
2026-04-26 01:20 40.15340 52.28743 31265 ft 537 kts 103°
2026-04-26 01:20 40.13874 52.38295 31261 ft 538 kts 103°
2026-04-26 01:21 40.12394 52.47886 31268 ft 537 kts 103°
2026-04-26 01:21 40.10909 52.57456 31270 ft 536 kts 103°
2026-04-26 01:22 40.09430 52.66933 31262 ft 536 kts 103°
2026-04-26 01:22 40.07931 52.76484 31254 ft 536 kts 103°
2026-04-26 01:23 40.06431 52.85986 31250 ft 536 kts 103°
2026-04-26 01:23 40.04926 52.95467 31251 ft 537 kts 103°
2026-04-26 01:24 40.03491 53.05005 31239 ft 537 kts 99°
2026-04-26 01:24 40.02582 53.14660 31238 ft 536 kts 98°
2026-04-26 01:25 40.01666 53.24310 31243 ft 536 kts 98°
2026-04-26 01:25 40.00730 53.33873 31239 ft 535 kts 98°
2026-04-26 01:26 39.99773 53.43459 31246 ft 537 kts 98°
2026-04-26 01:26 39.98798 53.53066 31245 ft 536 kts 98°
2026-04-26 01:27 39.97809 53.62706 31243 ft 536 kts 98°
2026-04-26 01:27 39.96815 53.72290 31227 ft 535 kts 99°
2026-04-26 01:28 39.95813 53.81859 31232 ft 535 kts 99°
2026-04-26 01:28 39.94800 53.91445 31230 ft 534 kts 99°
2026-04-26 01:29 39.93786 54.00964 31231 ft 535 kts 99°
2026-04-26 01:29 39.92762 54.10503 31231 ft 533 kts 99°
2026-04-26 01:30 39.91726 54.20069 31233 ft 536 kts 99°
2026-04-26 01:30 39.90682 54.29636 31235 ft 534 kts 99°
2026-04-26 01:31 39.89637 54.39135 31246 ft 534 kts 99°
2026-04-26 01:31 39.88205 54.48615 31253 ft 531 kts 107°
2026-04-26 01:32 39.86263 54.57822 31254 ft 531 kts 107°
2026-04-26 01:32 39.84300 54.67037 31244 ft 531 kts 108°
2026-04-26 01:33 39.82323 54.76282 31249 ft 530 kts 108°
2026-04-26 01:33 39.80360 54.85477 31253 ft 530 kts 108°
2026-04-26 01:34 39.78385 54.94707 31255 ft 530 kts 108°
2026-04-26 01:34 39.76420 55.03850 31258 ft 530 kts 108°
2026-04-26 01:35 39.74439 55.13028 31260 ft 529 kts 108°
2026-04-26 01:35 39.72446 55.22220 31260 ft 529 kts 108°
2026-04-26 01:36 39.70450 55.31385 31261 ft 528 kts 108°
2026-04-26 01:37 39.67446 55.45076 31259 ft 528 kts 108°
2026-04-26 01:37 39.65424 55.54227 31261 ft 527 kts 107°
2026-04-26 01:38 39.63403 55.63338 31257 ft 528 kts 107°
2026-04-26 01:38 39.61376 55.72438 31239 ft 526 kts 108°
2026-04-26 01:39 39.59349 55.81503 31238 ft 525 kts 108°
2026-04-26 01:39 39.57315 55.90558 31243 ft 525 kts 108°
2026-04-26 01:40 39.55298 55.99598 31247 ft 525 kts 108°
2026-04-26 01:40 39.53266 56.08675 31245 ft 525 kts 108°
2026-04-26 01:41 39.51237 56.17702 31247 ft 525 kts 108°
2026-04-26 01:41 39.49192 56.26761 31247 ft 524 kts 108°
2026-04-26 01:42 39.47145 56.35789 31244 ft 524 kts 108°
2026-04-26 01:42 39.45097 56.44792 31247 ft 524 kts 108°
2026-04-26 01:43 39.43041 56.53791 31244 ft 522 kts 108°
2026-04-26 01:43 39.40991 56.62726 31248 ft 522 kts 108°
2026-04-26 01:44 39.38915 56.71737 31241 ft 522 kts 108°
2026-04-26 01:44 39.36847 56.80682 31238 ft 521 kts 108°
2026-04-26 01:45 39.34626 56.89528 31243 ft 519 kts 110°
2026-04-26 01:45 39.32355 56.98317 31244 ft 519 kts 110°
2026-04-26 01:46 39.30078 57.07122 31238 ft 518 kts 110°
2026-04-26 01:46 39.27801 57.15917 31238 ft 518 kts 110°
2026-04-26 01:47 39.25514 57.24727 31235 ft 519 kts 110°
2026-04-26 01:47 39.23236 57.33476 31234 ft 518 kts 110°
2026-04-26 01:48 39.20945 57.42246 31233 ft 518 kts 110°
2026-04-26 01:48 39.18646 57.51020 31232 ft 517 kts 110°
2026-04-26 01:49 39.16343 57.59775 31233 ft 517 kts 110°
2026-04-26 01:49 39.14028 57.68548 31223 ft 517 kts 111°
2026-04-26 01:50 39.11719 57.77267 31220 ft 516 kts 110°
2026-04-26 01:50 39.09410 57.85959 31222 ft 516 kts 110°
2026-04-26 01:51 39.07084 57.94681 31223 ft 518 kts 111°
2026-04-26 01:51 39.04754 58.03390 31223 ft 516 kts 111°
2026-04-26 01:52 39.02409 58.12124 31215 ft 517 kts 111°
2026-04-26 01:52 39.00068 58.20814 31214 ft 517 kts 111°
2026-04-26 01:53 38.97705 58.29558 31212 ft 517 kts 111°
2026-04-26 01:53 38.95358 58.38211 31214 ft 516 kts 111°
2026-04-26 01:54 38.93002 58.46868 31212 ft 516 kts 111°
2026-04-26 01:54 38.90628 58.55559 31217 ft 516 kts 111°
2026-04-26 01:55 38.88090 58.64101 31214 ft 515 kts 118°
2026-04-26 01:55 38.84903 58.72343 31212 ft 515 kts 120°
2026-04-26 01:56 38.81709 58.80498 31213 ft 514 kts 120°
2026-04-26 01:56 38.78502 58.88662 31210 ft 514 kts 120°
2026-04-26 01:57 38.75270 58.96865 31206 ft 514 kts 120°
2026-04-26 01:57 38.72053 59.05009 31201 ft 514 kts 120°
2026-04-26 01:58 38.68820 59.13172 31203 ft 513 kts 120°
2026-04-26 01:58 38.65606 59.21267 31198 ft 513 kts 120°
2026-04-26 01:59 38.62366 59.29402 31195 ft 514 kts 120°
2026-04-26 01:59 38.59132 59.37505 31193 ft 514 kts 120°
2026-04-26 02:00 38.56073 59.45727 31191 ft 515 kts 118°
2026-04-26 02:00 38.53033 59.53969 31190 ft 516 kts 118°
2026-04-26 02:01 38.49961 59.62249 31187 ft 516 kts 118°
2026-04-26 02:01 38.46894 59.70484 31175 ft 514 kts 120°
2026-04-26 02:02 38.43817 59.78714 31177 ft 515 kts 120°
2026-04-26 02:02 38.40752 59.86887 31178 ft 515 kts 120°
2026-04-26 02:03 38.37653 59.95125 31180 ft 516 kts 120°
2026-04-26 02:03 38.34562 60.03320 31168 ft 513 kts 121°
2026-04-26 02:04 38.31471 60.11489 31176 ft 515 kts 120°
2026-04-26 02:04 38.28370 60.19666 31159 ft 515 kts 121°
2026-04-26 02:05 38.25234 60.27911 31150 ft 516 kts 121°
2026-04-26 02:05 38.22115 60.36087 31144 ft 516 kts 121°
2026-04-26 02:06 38.18993 60.44252 31135 ft 516 kts 121°
2026-04-26 02:06 38.15868 60.52403 31138 ft 514 kts 121°
2026-04-26 02:07 38.12736 60.60548 31128 ft 515 kts 121°
2026-04-26 02:07 38.09594 60.68700 31117 ft 516 kts 122°
2026-04-26 02:08 38.06446 60.76845 31116 ft 517 kts 122°
2026-04-26 02:08 38.03306 60.84951 31111 ft 513 kts 122°
2026-04-26 02:09 38.00137 60.93105 31111 ft 516 kts 122°
2026-04-26 02:09 37.96961 61.01255 31104 ft 518 kts 122°
2026-04-26 02:10 37.93784 61.09393 31103 ft 514 kts 122°
2026-04-26 02:10 37.90622 61.17467 31102 ft 516 kts 122°
2026-04-26 02:11 37.87418 61.25622 31117 ft 518 kts 122°
2026-04-26 02:11 37.84193 61.33817 31123 ft 518 kts 122°
2026-04-26 02:12 37.81003 61.41899 31123 ft 521 kts 122°
2026-04-26 02:12 37.77751 61.50115 31112 ft 521 kts 122°
2026-04-26 02:13 37.74528 61.58239 31111 ft 521 kts 122°
2026-04-26 02:13 37.71255 61.66467 31101 ft 522 kts 122°
2026-04-26 02:14 37.68025 61.74567 31086 ft 522 kts 123°
2026-04-26 02:14 37.64757 61.82739 31086 ft 522 kts 122°
2026-04-26 02:15 37.61235 61.90647 31099 ft 516 kts 131°
2026-04-26 02:15 37.57021 61.97940 31078 ft 514 kts 133°
2026-04-26 02:16 37.52782 62.05179 31081 ft 514 kts 133°
2026-04-26 02:16 37.48531 62.12412 31072 ft 515 kts 133°
2026-04-26 02:17 37.44270 62.19643 31065 ft 514 kts 133°
2026-04-26 02:17 37.39970 62.26920 31075 ft 516 kts 133°
2026-04-26 02:18 37.35700 62.34130 31068 ft 515 kts 133°
2026-04-26 02:18 37.31416 62.41346 31068 ft 517 kts 133°
2026-04-26 02:19 37.27115 62.48578 31069 ft 516 kts 133°
2026-04-26 02:19 37.22806 62.55805 31066 ft 517 kts 133°
2026-04-26 02:20 37.18518 62.62982 31063 ft 515 kts 133°
2026-04-26 02:20 37.14197 62.70195 31052 ft 519 kts 134°
2026-04-26 02:21 37.09869 62.77409 31056 ft 518 kts 133°
2026-04-26 02:21 37.05539 62.84608 31055 ft 520 kts 133°
2026-04-26 02:22 37.01203 62.91803 31049 ft 520 kts 133°
2026-04-26 02:22 36.96829 62.99044 31069 ft 520 kts 133°
2026-04-26 02:23 36.92495 63.06207 31067 ft 518 kts 133°
2026-04-26 02:23 36.88168 63.13340 31080 ft 519 kts 133°
2026-04-26 02:24 36.83814 63.20503 31082 ft 520 kts 133°
2026-04-26 02:24 36.79434 63.27694 31079 ft 518 kts 133°
2026-04-26 02:25 36.75092 63.34808 31084 ft 519 kts 133°
2026-04-26 02:25 36.70707 63.41975 31090 ft 518 kts 133°
2026-04-26 02:26 36.66328 63.49117 31094 ft 519 kts 133°
2026-04-26 02:26 36.61963 63.56224 31098 ft 519 kts 133°
2026-04-26 02:27 36.57588 63.63330 31107 ft 518 kts 133°
2026-04-26 02:27 36.53209 63.70429 31099 ft 519 kts 133°
2026-04-26 02:28 36.48819 63.77530 31103 ft 518 kts 133°
2026-04-26 02:28 36.44410 63.84648 31114 ft 517 kts 134°
2026-04-26 02:29 36.40030 63.91703 31095 ft 519 kts 134°
2026-04-26 02:29 36.35631 63.98774 31112 ft 522 kts 134°
2026-04-26 02:30 36.31217 64.05856 31108 ft 518 kts 134°
2026-04-26 02:30 36.26757 64.12992 31095 ft 523 kts 133°
2026-04-26 02:31 36.22345 64.20045 31089 ft 519 kts 133°
2026-04-26 02:31 36.17877 64.27166 31089 ft 521 kts 133°
2026-04-26 02:32 36.13520 64.34309 31107 ft 526 kts 131°
2026-04-26 02:32 36.09200 64.41627 31108 ft 523 kts 131°
2026-04-26 02:33 36.04927 64.48833 31121 ft 525 kts 131°
2026-04-26 02:33 36.00583 64.56133 31115 ft 524 kts 131°
2026-04-26 02:34 35.96257 64.63380 31132 ft 528 kts 131°
2026-04-26 02:34 35.91936 64.70604 31155 ft 524 kts 131°
2026-04-26 02:35 35.87559 64.77899 31193 ft 528 kts 131°
2026-04-26 02:35 35.83207 64.85143 31234 ft 523 kts 131°
2026-04-26 02:36 35.78869 64.92340 31265 ft 529 kts 131°
2026-04-26 02:36 35.74482 64.99610 31318 ft 527 kts 131°
2026-04-26 02:37 35.70126 65.06809 31350 ft 525 kts 131°
2026-04-26 02:37 35.65747 65.14032 31370 ft 529 kts 131°
2026-04-26 02:38 35.61362 65.21251 31388 ft 527 kts 130°
2026-04-26 02:38 35.56964 65.28474 31411 ft 528 kts 131°
2026-04-26 02:39 35.52611 65.35612 31444 ft 528 kts 130°
2026-04-26 02:39 35.48195 65.42834 31447 ft 529 kts 130°
2026-04-26 02:40 35.43772 65.50055 31469 ft 531 kts 131°
2026-04-26 02:40 35.39352 65.57256 31486 ft 527 kts 130°
2026-04-26 02:41 35.34945 65.64420 31507 ft 529 kts 130°
2026-04-26 02:41 35.30512 65.71613 31497 ft 527 kts 131°
2026-04-26 02:42 35.26124 65.78718 31532 ft 527 kts 131°
2026-04-26 02:42 35.21677 65.85901 31531 ft 531 kts 130°
2026-04-26 02:43 35.15031 65.96613 31568 ft 530 kts 130°
2026-04-26 02:43 35.10555 66.03809 31579 ft 530 kts 131°
2026-04-26 02:44 35.06118 66.10928 31617 ft 531 kts 131°
2026-04-26 02:44 35.01655 66.18073 31608 ft 530 kts 130°
2026-04-26 02:45 34.97179 66.25226 31630 ft 531 kts 130°
2026-04-26 02:45 34.92703 66.32307 31629 ft 530 kts 131°
2026-04-26 02:46 34.88163 66.39446 31629 ft 528 kts 131°
2026-04-26 02:46 34.83675 66.46493 31616 ft 531 kts 131°
2026-04-26 02:47 34.79168 66.53558 31625 ft 530 kts 130°
2026-04-26 02:47 34.74609 66.60689 31627 ft 531 kts 130°
2026-04-26 02:48 34.70097 66.67736 31622 ft 530 kts 131°
2026-04-26 02:48 34.65562 66.74803 31617 ft 528 kts 131°
2026-04-26 02:49 34.61055 66.81812 31605 ft 530 kts 131°
2026-04-26 02:49 34.56512 66.88865 31602 ft 530 kts 131°
2026-04-26 02:50 34.52000 66.95851 31618 ft 528 kts 131°
2026-04-26 02:50 34.47456 67.02866 31614 ft 530 kts 131°
2026-04-26 02:51 34.42906 67.09875 31605 ft 530 kts 131°
2026-04-26 02:51 34.38351 67.16878 31599 ft 531 kts 131°
2026-04-26 02:52 34.33767 67.23914 31584 ft 531 kts 131°
2026-04-26 02:52 34.29192 67.30920 31577 ft 530 kts 131°
2026-04-26 02:53 34.24630 67.37894 31584 ft 530 kts 131°
2026-04-26 02:53 34.20065 67.44858 31573 ft 532 kts 130°
2026-04-26 02:54 34.15486 67.51831 31587 ft 531 kts 130°
2026-04-26 02:54 34.10914 67.58779 31593 ft 532 kts 130°
2026-04-26 02:55 34.06276 67.65814 31593 ft 532 kts 131°
2026-04-26 02:55 34.01692 67.72753 31593 ft 533 kts 131°
2026-04-26 02:56 33.97043 67.79773 31586 ft 532 kts 131°
2026-04-26 02:56 33.92409 67.86659 31585 ft 534 kts 132°
2026-04-26 02:57 33.87747 67.93566 31563 ft 531 kts 131°
2026-04-26 02:57 33.83049 68.00517 31578 ft 535 kts 131°
2026-04-26 02:58 33.78374 68.07421 31568 ft 533 kts 131°
2026-04-26 02:58 33.73693 68.14323 31535 ft 533 kts 131°
2026-04-26 02:59 33.69041 68.21169 31522 ft 533 kts 131°
2026-04-26 02:59 33.64347 68.28064 31511 ft 533 kts 131°
2026-04-26 03:00 33.59666 68.34927 31500 ft 532 kts 131°
2026-04-26 03:00 33.54990 68.41770 31490 ft 533 kts 131°
2026-04-26 03:01 33.50193 68.48567 31460 ft 530 kts 132°
2026-04-26 03:01 33.45400 68.55268 31447 ft 533 kts 132°
2026-04-26 03:02 33.40605 68.61970 31451 ft 531 kts 132°
2026-04-26 03:02 33.35809 68.68664 31446 ft 530 kts 133°
2026-04-26 03:03 33.31019 68.75341 31450 ft 530 kts 133°
2026-04-26 03:03 33.26271 68.82017 31451 ft 530 kts 130°
2026-04-26 03:04 33.21801 68.89006 31462 ft 530 kts 129°
2026-04-26 03:04 33.17328 68.96011 31473 ft 528 kts 129°
2026-04-26 03:05 33.12870 69.02951 31483 ft 530 kts 129°
2026-04-26 03:05 33.08396 69.09889 31484 ft 528 kts 129°
2026-04-26 03:06 33.03923 69.16804 31477 ft 529 kts 129°
2026-04-26 03:06 32.99445 69.23708 31469 ft 529 kts 129°
2026-04-26 03:07 32.94936 69.30646 31432 ft 530 kts 129°
2026-04-26 03:07 32.90422 69.37576 31421 ft 528 kts 129°
2026-04-26 03:08 32.85921 69.44473 31403 ft 528 kts 129°
2026-04-26 03:08 32.81419 69.51330 31390 ft 527 kts 129°
2026-04-26 03:09 32.76902 69.58195 31391 ft 528 kts 129°
2026-04-26 03:09 32.72391 69.65038 31405 ft 529 kts 129°
2026-04-26 03:10 32.67835 69.71938 31394 ft 528 kts 129°
2026-04-26 03:10 32.63308 69.78781 31352 ft 528 kts 129°
2026-04-26 03:11 32.58796 69.85590 31297 ft 527 kts 129°
2026-04-26 03:11 32.54257 69.92426 31226 ft 527 kts 129°
2026-04-26 03:12 32.49707 69.99267 31165 ft 528 kts 129°
2026-04-26 03:12 32.45163 70.06085 31102 ft 529 kts 129°
2026-04-26 03:13 32.40622 70.12888 31072 ft 529 kts 129°
2026-04-26 03:13 32.36085 70.19683 31041 ft 529 kts 128°
2026-04-26 03:14 32.31612 70.26607 31008 ft 528 kts 128°
2026-04-26 03:14 32.27165 70.33495 30960 ft 529 kts 128°
2026-04-26 03:15 32.22703 70.40387 30928 ft 528 kts 128°
2026-04-26 03:15 32.18239 70.47264 30910 ft 529 kts 128°
2026-04-26 03:16 32.13738 70.54184 30890 ft 529 kts 128°
2026-04-26 03:16 32.09259 70.61055 30882 ft 530 kts 128°
2026-04-26 03:17 32.04774 70.67924 30860 ft 529 kts 128°
2026-04-26 03:17 32.00283 70.74789 30859 ft 530 kts 128°
2026-04-26 03:18 31.95797 70.81632 30859 ft 529 kts 128°
2026-04-26 03:18 31.91363 70.88564 30846 ft 529 kts 122°
2026-04-26 03:19 31.87889 70.95987 30844 ft 530 kts 117°
2026-04-26 03:19 31.84446 71.03679 30838 ft 532 kts 117°
2026-04-26 03:20 31.80992 71.11366 30834 ft 533 kts 117°
2026-04-26 03:20 31.77525 71.19061 30839 ft 531 kts 117°
2026-04-26 03:21 31.74070 71.26708 30842 ft 532 kts 117°
2026-04-26 03:21 31.70615 71.34339 30843 ft 532 kts 117°
2026-04-26 03:22 31.67141 71.41994 30842 ft 532 kts 117°
2026-04-26 03:22 31.63627 71.49718 30846 ft 533 kts 117°
2026-04-26 03:23 31.60133 71.57385 30846 ft 533 kts 117°
2026-04-26 03:23 31.56659 71.64986 30847 ft 535 kts 117°
2026-04-26 03:24 31.53138 71.72671 30838 ft 533 kts 118°
2026-04-26 03:24 31.49617 71.80341 30839 ft 535 kts 118°
2026-04-26 03:25 31.46084 71.88017 30837 ft 535 kts 118°
2026-04-26 03:25 31.42558 71.95667 30833 ft 534 kts 118°
2026-04-26 03:26 31.39031 72.03301 30826 ft 534 kts 118°
2026-04-26 03:26 31.35506 72.10915 30821 ft 534 kts 118°
2026-04-26 03:27 31.31986 72.18506 30822 ft 536 kts 118°
2026-04-26 03:27 31.28855 72.26392 30815 ft 533 kts 106°
2026-04-26 03:28 31.27652 72.34842 30817 ft 530 kts 88°
2026-04-26 03:28 31.28250 72.43344 30826 ft 526 kts 80°
2026-04-26 03:29 31.29173 72.51849 30825 ft 525 kts 79°
2026-04-26 03:29 31.30100 72.60294 30827 ft 526 kts 79°
2026-04-26 03:30 31.31029 72.68754 30820 ft 526 kts 80°
2026-04-26 03:30 31.31952 72.77174 30822 ft 524 kts 79°
2026-04-26 03:31 31.32877 72.85635 30821 ft 526 kts 79°
2026-04-26 03:31 31.33801 72.94140 30821 ft 525 kts 80°
2026-04-26 03:32 31.34714 73.02580 30822 ft 525 kts 79°
2026-04-26 03:32 31.35626 73.11068 30824 ft 525 kts 79°
2026-04-26 03:33 31.36526 73.19479 30826 ft 524 kts 79°
2026-04-26 03:33 31.37423 73.27923 30834 ft 525 kts 79°
2026-04-26 03:34 31.38316 73.36386 30841 ft 524 kts 79°
2026-04-26 03:34 31.39206 73.44865 30840 ft 526 kts 79°
2026-04-26 03:35 31.40083 73.53285 30840 ft 524 kts 79°
2026-04-26 03:35 31.40961 73.61764 30833 ft 524 kts 79°
2026-04-26 03:36 31.41831 73.70223 30826 ft 525 kts 80°
2026-04-26 03:36 31.42699 73.78735 30826 ft 523 kts 80°
2026-04-26 03:37 31.43550 73.87143 30826 ft 523 kts 80°
2026-04-26 03:37 31.44406 73.95662 30825 ft 524 kts 80°
2026-04-26 03:38 31.44416 74.04172 30825 ft 531 kts 96°
2026-04-26 03:38 31.42950 74.12611 30828 ft 531 kts 100°
2026-04-26 03:39 31.41356 74.21114 30828 ft 532 kts 100°
2026-04-26 03:39 31.39766 74.29558 30828 ft 532 kts 100°
2026-04-26 03:40 31.38172 74.37991 30830 ft 532 kts 100°
2026-04-26 03:40 31.36571 74.46435 30826 ft 531 kts 99°
2026-04-26 03:41 31.34969 74.54852 30828 ft 533 kts 99°
2026-04-26 03:41 31.33113 74.63206 30829 ft 533 kts 104°
2026-04-26 03:42 31.31019 74.71468 30820 ft 533 kts 104°
2026-04-26 03:42 31.28925 74.79777 30824 ft 533 kts 104°
2026-04-26 03:43 31.26845 74.88055 30823 ft 533 kts 104°
2026-04-26 03:43 31.24751 74.96394 30825 ft 534 kts 104°
2026-04-26 03:44 31.22664 75.04697 30821 ft 534 kts 104°
2026-04-26 03:44 31.20582 75.12962 30818 ft 535 kts 104°
2026-04-26 03:45 31.18487 75.21259 30817 ft 534 kts 104°
2026-04-26 03:45 31.16376 75.29598 30816 ft 535 kts 104°
2026-04-26 03:46 31.14271 75.37888 30816 ft 535 kts 104°
2026-04-26 03:47 31.10948 75.50333 30821 ft 535 kts 108°
2026-04-26 03:47 31.08265 75.58426 30822 ft 534 kts 109°
2026-04-26 03:48 31.05590 75.66441 30823 ft 536 kts 109°
2026-04-26 03:48 31.02885 75.74535 30823 ft 534 kts 109°
2026-04-26 03:49 31.00184 75.82602 30819 ft 534 kts 109°
2026-04-26 03:49 30.97480 75.90660 30822 ft 535 kts 110°
2026-04-26 03:50 30.94783 75.98682 30833 ft 537 kts 110°
2026-04-26 03:50 30.92071 76.06726 30828 ft 535 kts 109°
2026-04-26 03:51 30.89333 76.14830 30837 ft 537 kts 110°
2026-04-26 03:51 30.86615 76.22857 30835 ft 536 kts 109°
2026-04-26 03:52 30.83890 76.30886 30841 ft 536 kts 109°
2026-04-26 03:52 30.81160 76.38909 30841 ft 535 kts 109°
2026-04-26 03:53 30.78398 76.47006 30848 ft 537 kts 109°
2026-04-26 03:53 30.75654 76.55031 30855 ft 535 kts 109°
2026-04-26 03:54 30.72890 76.63097 30864 ft 535 kts 109°
2026-04-26 03:54 30.70134 76.71122 30844 ft 537 kts 110°
2026-04-26 03:55 30.66747 76.78783 30848 ft 540 kts 124°
2026-04-26 03:55 30.62274 76.85791 30840 ft 539 kts 126°
2026-04-26 03:56 30.57773 76.92705 30854 ft 539 kts 126°
2026-04-26 03:56 30.53217 76.99687 30860 ft 539 kts 126°
2026-04-26 03:57 30.48689 77.06611 30881 ft 540 kts 126°
2026-04-26 03:57 30.44145 77.13545 30884 ft 540 kts 126°
2026-04-26 03:58 30.38919 77.19781 30895 ft 541 kts 143°
2026-04-26 03:58 30.32533 77.24205 30875 ft 538 kts 154°
2026-04-26 03:59 30.25796 77.28153 30863 ft 540 kts 154°
2026-04-26 03:59 30.19141 77.32036 30843 ft 537 kts 154°
2026-04-26 04:00 30.12440 77.35937 30822 ft 540 kts 154°
2026-04-26 04:00 30.05697 77.39857 30797 ft 538 kts 154°
2026-04-26 04:01 29.99060 77.43875 30793 ft 539 kts 147°
2026-04-26 04:01 29.93053 77.49036 30797 ft 540 kts 142°
2026-04-26 04:02 29.87205 77.54301 30789 ft 540 kts 142°
2026-04-26 04:02 29.81286 77.59615 30790 ft 540 kts 142°
2026-04-26 04:03 29.75350 77.64934 30791 ft 540 kts 142°
2026-04-26 04:03 29.69408 77.70248 30781 ft 540 kts 142°
2026-04-26 04:04 29.63497 77.75526 30772 ft 540 kts 142°
2026-04-26 04:04 29.57521 77.80852 30775 ft 539 kts 142°
2026-04-26 04:05 29.51619 77.86103 30776 ft 539 kts 142°
2026-04-26 04:05 29.45657 77.91401 30774 ft 539 kts 142°
2026-04-26 04:06 29.39724 77.96664 30771 ft 539 kts 142°
2026-04-26 04:06 29.33781 78.01928 30769 ft 538 kts 142°
2026-04-26 04:07 29.27861 78.07164 30772 ft 539 kts 142°
2026-04-26 04:07 29.21958 78.12376 30771 ft 538 kts 142°
2026-04-26 04:08 29.16019 78.17613 30773 ft 539 kts 142°
2026-04-26 04:08 29.10075 78.22848 30780 ft 539 kts 142°
2026-04-26 04:09 29.04138 78.28066 30781 ft 537 kts 142°
2026-04-26 04:09 28.98219 78.33262 30781 ft 538 kts 142°
2026-04-26 04:10 28.92271 78.38475 30777 ft 539 kts 142°
2026-04-26 04:10 28.86314 78.43690 30769 ft 537 kts 142°
2026-04-26 04:11 28.80358 78.48895 30767 ft 538 kts 142°
2026-04-26 04:11 28.74445 78.54054 30768 ft 538 kts 142°
2026-04-26 04:12 28.68476 78.59255 30769 ft 539 kts 142°
2026-04-26 04:12 28.62538 78.64422 30771 ft 538 kts 142°
2026-04-26 04:13 28.56590 78.69590 30763 ft 537 kts 143°
2026-04-26 04:13 28.50635 78.74756 30765 ft 538 kts 142°
2026-04-26 04:14 28.44887 78.80190 30771 ft 537 kts 135°
2026-04-26 04:14 28.39586 78.86241 30760 ft 537 kts 134°
2026-04-26 04:15 28.34356 78.92223 30751 ft 539 kts 134°
2026-04-26 04:15 28.29055 78.98270 30751 ft 539 kts 134°
2026-04-26 04:16 28.23794 79.04257 30755 ft 539 kts 134°
2026-04-26 04:16 28.18524 79.10244 30754 ft 538 kts 134°
2026-04-26 04:17 28.13258 79.16215 30754 ft 535 kts 134°
2026-04-26 04:17 28.07970 79.22202 30752 ft 537 kts 134°
2026-04-26 04:18 28.02705 79.28153 30755 ft 536 kts 134°
2026-04-26 04:18 27.97463 79.34070 30753 ft 534 kts 134°
2026-04-26 04:19 27.92182 79.40022 30755 ft 537 kts 134°
2026-04-26 04:19 27.86910 79.45955 30743 ft 534 kts 134°
2026-04-26 04:20 27.81649 79.51867 30734 ft 536 kts 134°
2026-04-26 04:20 27.76371 79.57789 30739 ft 533 kts 134°
2026-04-26 04:21 27.71121 79.63672 30739 ft 534 kts 134°
2026-04-26 04:21 27.66066 79.69756 30747 ft 531 kts 128°
2026-04-26 04:22 27.61393 79.76152 30747 ft 532 kts 128°
2026-04-26 04:22 27.56664 79.82570 30742 ft 534 kts 129°
2026-04-26 04:23 27.51856 79.89044 30748 ft 539 kts 129°
2026-04-26 04:23 27.47069 79.95458 30751 ft 535 kts 129°
2026-04-26 04:24 27.42284 80.01851 30752 ft 536 kts 129°
2026-04-26 04:24 27.37506 80.08218 30753 ft 534 kts 129°
2026-04-26 04:25 27.32698 80.14612 30752 ft 533 kts 129°
2026-04-26 04:25 27.27915 80.20961 30747 ft 534 kts 129°
2026-04-26 04:26 27.23118 80.27318 30743 ft 535 kts 129°
2026-04-26 04:26 27.18330 80.33654 30744 ft 533 kts 129°
2026-04-26 04:27 27.13537 80.39986 30744 ft 533 kts 129°
2026-04-26 04:27 27.08768 80.46278 30746 ft 531 kts 129°
2026-04-26 04:28 27.03986 80.52576 30746 ft 530 kts 129°
2026-04-26 04:28 26.99208 80.58862 30750 ft 531 kts 129°
2026-04-26 04:29 26.94431 80.65137 30750 ft 531 kts 129°
2026-04-26 04:29 26.89624 80.71442 30745 ft 529 kts 130°
2026-04-26 04:30 26.84855 80.77689 30740 ft 530 kts 129°
2026-04-26 04:30 26.80056 80.83965 30748 ft 529 kts 130°
2026-04-26 04:31 26.75291 80.90191 30751 ft 528 kts 129°
2026-04-26 04:31 26.70920 80.96806 30754 ft 529 kts 124°
2026-04-26 04:32 26.66634 81.03492 30755 ft 528 kts 125°
2026-04-26 04:32 26.62342 81.10133 30754 ft 528 kts 125°
2026-04-26 04:33 26.58039 81.16754 30756 ft 527 kts 125°
2026-04-26 04:33 26.53704 81.23402 30746 ft 527 kts 125°
2026-04-26 04:34 26.49409 81.29969 30738 ft 527 kts 125°
2026-04-26 04:34 26.45095 81.36552 30738 ft 527 kts 126°
2026-04-26 04:35 26.40763 81.43150 30740 ft 527 kts 126°
2026-04-26 04:35 26.36437 81.49727 30734 ft 526 kts 126°
2026-04-26 04:36 26.32083 81.56337 30734 ft 527 kts 126°
2026-04-26 04:36 26.27766 81.62882 30734 ft 528 kts 126°
2026-04-26 04:37 26.23427 81.69448 30728 ft 526 kts 126°
2026-04-26 04:37 26.19080 81.76019 30732 ft 527 kts 126°
2026-04-26 04:38 26.14747 81.82559 30730 ft 526 kts 126°
2026-04-26 04:38 26.10397 81.89114 30731 ft 526 kts 126°
2026-04-26 04:39 26.06061 81.95640 30728 ft 526 kts 126°
2026-04-26 04:39 26.01720 82.02164 30729 ft 527 kts 127°
2026-04-26 04:40 25.97349 82.08723 30736 ft 526 kts 127°
2026-04-26 04:40 25.93015 82.15219 30741 ft 525 kts 127°
2026-04-26 04:41 25.88671 82.21719 30747 ft 525 kts 127°
2026-04-26 04:41 25.84310 82.28236 30747 ft 525 kts 127°
2026-04-26 04:42 25.79943 82.34753 30749 ft 526 kts 127°
2026-04-26 04:42 25.75568 82.41273 30743 ft 525 kts 127°
2026-04-26 04:43 25.71207 82.47762 30739 ft 524 kts 127°
2026-04-26 04:43 25.66850 82.54237 30738 ft 524 kts 127°
2026-04-26 04:44 25.62480 82.60722 30733 ft 524 kts 127°
2026-04-26 04:44 25.58120 82.67184 30724 ft 524 kts 128°
2026-04-26 04:45 25.53778 82.73609 30724 ft 522 kts 128°
2026-04-26 04:45 25.49439 82.80022 30723 ft 522 kts 128°
2026-04-26 04:46 25.45368 82.86653 30720 ft 524 kts 118°
2026-04-26 04:46 25.42617 82.94214 30724 ft 526 kts 110°
2026-04-26 04:47 25.40121 83.01755 30726 ft 525 kts 111°
2026-04-26 04:47 25.37601 83.09328 30733 ft 525 kts 111°
2026-04-26 04:48 25.33806 83.20675 30737 ft 525 kts 111°
2026-04-26 04:48 25.31266 83.28240 30737 ft 525 kts 111°
2026-04-26 04:49 25.28716 83.35815 30738 ft 524 kts 111°
2026-04-26 04:49 25.26182 83.43327 30741 ft 526 kts 111°
2026-04-26 04:50 25.23617 83.50916 30741 ft 524 kts 111°
2026-04-26 04:50 25.21071 83.58432 30738 ft 523 kts 111°
2026-04-26 04:51 25.18529 83.65921 30735 ft 524 kts 111°
2026-04-26 04:51 25.15956 83.73489 30726 ft 524 kts 111°
2026-04-26 04:52 25.13408 83.80967 30724 ft 524 kts 111°
2026-04-26 04:52 25.10835 83.88505 30724 ft 523 kts 111°
2026-04-26 04:53 25.08277 83.95987 30727 ft 524 kts 111°
2026-04-26 04:53 25.05703 84.03498 30726 ft 525 kts 111°
2026-04-26 04:54 25.03119 84.11025 30729 ft 525 kts 111°
2026-04-26 04:54 25.00539 84.18527 30730 ft 524 kts 111°
2026-04-26 04:55 24.97939 84.26073 30732 ft 525 kts 111°
2026-04-26 04:55 24.95338 84.33607 30736 ft 524 kts 111°
2026-04-26 04:56 24.92747 84.41098 30743 ft 525 kts 111°
2026-04-26 04:56 24.90152 84.48586 30742 ft 527 kts 111°
2026-04-26 04:57 24.87533 84.56130 30748 ft 529 kts 111°
2026-04-26 04:57 24.84907 84.63682 30744 ft 528 kts 111°
2026-04-26 04:58 24.82279 84.71222 30751 ft 530 kts 111°
2026-04-26 04:58 24.79650 84.78752 30750 ft 529 kts 111°
2026-04-26 04:59 24.76994 84.86346 30753 ft 529 kts 111°
2026-04-26 04:59 24.74219 84.93804 30759 ft 531 kts 118°
2026-04-26 05:00 24.70281 85.00652 30757 ft 531 kts 125°
2026-04-26 05:00 24.66160 85.07363 30766 ft 531 kts 126°
2026-04-26 05:01 24.61993 85.14130 30766 ft 533 kts 126°
2026-04-26 05:01 24.57849 85.20846 30772 ft 532 kts 126°
2026-04-26 05:02 24.53712 85.27538 30782 ft 534 kts 126°
2026-04-26 05:02 24.49519 85.34312 30801 ft 532 kts 126°
2026-04-26 05:03 24.45347 85.41042 30822 ft 537 kts 126°
2026-04-26 05:03 24.41140 85.47817 30832 ft 536 kts 126°
2026-04-26 05:04 24.36953 85.54552 30838 ft 538 kts 126°
2026-04-26 05:04 24.32740 85.61320 30834 ft 535 kts 126°
2026-04-26 05:05 24.28545 85.68050 30822 ft 537 kts 127°
2026-04-26 05:05 24.24320 85.74816 30819 ft 539 kts 127°
2026-04-26 05:06 24.20084 85.81593 30824 ft 538 kts 127°
2026-04-26 05:06 24.15857 85.88346 30815 ft 539 kts 127°
2026-04-26 05:07 24.11603 85.95130 30816 ft 540 kts 127°
2026-04-26 05:07 24.07367 86.01881 30804 ft 541 kts 127°
2026-04-26 05:08 24.03106 86.08657 30804 ft 544 kts 127°
2026-04-26 05:08 23.98807 86.15488 30802 ft 543 kts 127°
2026-04-26 05:09 23.94533 86.22269 30806 ft 544 kts 127°
2026-04-26 05:09 23.90246 86.29061 30804 ft 545 kts 127°
2026-04-26 05:10 23.85917 86.35910 30787 ft 548 kts 127°
2026-04-26 05:10 23.81590 86.42749 30785 ft 547 kts 127°
2026-04-26 05:11 23.77504 86.49802 30770 ft 552 kts 123°
2026-04-26 05:11 23.73576 86.56978 30768 ft 551 kts 124°
2026-04-26 05:12 23.69633 86.64132 30775 ft 554 kts 123°
2026-04-26 05:12 23.65680 86.71269 30764 ft 551 kts 124°
2026-04-26 05:13 23.61700 86.78432 30758 ft 552 kts 124°
2026-04-26 05:13 23.57722 86.85570 30773 ft 554 kts 124°
2026-04-26 05:14 23.53698 86.92777 30773 ft 555 kts 124°
2026-04-26 05:14 23.49695 86.99935 30774 ft 556 kts 124°
2026-04-26 05:15 23.45685 87.07102 30772 ft 556 kts 125°
2026-04-26 05:15 23.41671 87.14278 30774 ft 556 kts 125°
2026-04-26 05:16 23.37628 87.21493 30778 ft 558 kts 125°
2026-04-26 05:16 23.33589 87.28693 30780 ft 562 kts 125°
2026-04-26 05:17 23.29551 87.35881 30778 ft 559 kts 125°
2026-04-26 05:17 23.25471 87.43131 30777 ft 561 kts 125°
2026-04-26 05:18 23.21426 87.50309 30770 ft 562 kts 125°
2026-04-26 05:18 23.17329 87.57569 30765 ft 562 kts 125°
2026-04-26 05:19 23.13258 87.64774 30765 ft 560 kts 126°
2026-04-26 05:19 23.09195 87.71951 30744 ft 561 kts 126°
2026-04-26 05:20 23.05099 87.79180 30740 ft 560 kts 126°
2026-04-26 05:20 23.01019 87.86368 30744 ft 563 kts 126°
2026-04-26 05:21 22.96919 87.93583 30747 ft 563 kts 126°
2026-04-26 05:21 22.92810 88.00804 30752 ft 562 kts 126°
2026-04-26 05:22 22.88695 88.08025 30771 ft 562 kts 126°
2026-04-26 05:22 22.84598 88.15202 30783 ft 562 kts 126°
2026-04-26 05:23 22.80499 88.22376 30791 ft 560 kts 126°
2026-04-26 05:23 22.76397 88.29542 30796 ft 562 kts 126°
2026-04-26 05:24 22.72283 88.36723 30800 ft 562 kts 126°
2026-04-26 05:24 22.68134 88.43951 30803 ft 562 kts 126°
2026-04-26 05:25 22.63752 88.50933 30811 ft 560 kts 130°
2026-04-26 05:25 22.59242 88.57697 30811 ft 560 kts 130°
2026-04-26 05:26 22.54699 88.64534 30818 ft 557 kts 130°
2026-04-26 05:26 22.50164 88.71371 30796 ft 559 kts 130°
2026-04-26 05:27 22.45660 88.78168 30800 ft 557 kts 130°
2026-04-26 05:27 22.41150 88.84971 30796 ft 556 kts 130°
2026-04-26 05:28 22.36659 88.91740 30798 ft 557 kts 130°
2026-04-26 05:28 22.32162 88.98515 30799 ft 554 kts 130°
2026-04-26 05:29 22.27735 89.05353 30804 ft 556 kts 128°
2026-04-26 05:29 22.23464 89.12332 30802 ft 557 kts 128°
2026-04-26 05:30 22.19207 89.19268 30817 ft 556 kts 128°
2026-04-26 05:30 22.14947 89.26183 30834 ft 557 kts 128°
2026-04-26 05:31 22.10651 89.33143 30836 ft 557 kts 128°
2026-04-26 05:31 22.06365 89.40071 30842 ft 555 kts 128°
2026-04-26 05:32 22.02086 89.46976 30853 ft 556 kts 127°
2026-04-26 05:32 21.97794 89.53893 30848 ft 556 kts 128°
2026-04-26 05:33 21.93483 89.60831 30851 ft 554 kts 128°
2026-04-26 05:33 21.89214 89.67690 30838 ft 556 kts 128°
2026-04-26 05:34 21.84928 89.74570 30840 ft 554 kts 128°
2026-04-26 05:34 21.80623 89.81470 30842 ft 555 kts 128°
2026-04-26 05:35 21.76337 89.88331 30845 ft 552 kts 128°
2026-04-26 05:35 21.72031 89.95215 30849 ft 554 kts 128°
2026-04-26 05:36 21.67725 90.02090 30846 ft 554 kts 128°
2026-04-26 05:36 21.63452 90.08904 30850 ft 552 kts 128°
2026-04-26 05:37 21.59142 90.15769 30853 ft 552 kts 128°
2026-04-26 05:37 21.54851 90.22594 30853 ft 554 kts 128°
2026-04-26 05:38 21.50539 90.29446 30859 ft 552 kts 128°
2026-04-26 05:38 21.46243 90.36262 30862 ft 552 kts 127°
2026-04-26 05:39 21.41960 90.43050 30862 ft 553 kts 127°
2026-04-26 05:39 21.37649 90.49876 30865 ft 552 kts 128°
2026-04-26 05:40 21.33357 90.56661 30863 ft 551 kts 127°
2026-04-26 05:40 21.29069 90.63440 30862 ft 552 kts 127°
2026-04-26 05:41 21.24734 90.70284 30848 ft 552 kts 128°
2026-04-26 05:41 21.20413 90.77099 30855 ft 551 kts 128°
2026-04-26 05:42 21.16133 90.83840 30860 ft 551 kts 128°
2026-04-26 05:42 21.11824 90.90621 30864 ft 548 kts 128°
2026-04-26 05:43 21.07542 90.97348 30867 ft 550 kts 128°
2026-04-26 05:43 21.03245 91.04091 30865 ft 549 kts 128°
2026-04-26 05:44 20.98970 91.10794 30875 ft 547 kts 127°
2026-04-26 05:44 20.94660 91.17540 30869 ft 549 kts 127°
2026-04-26 05:45 20.90363 91.24262 30874 ft 550 kts 128°
2026-04-26 05:45 20.86044 91.31006 30870 ft 550 kts 128°
2026-04-26 05:46 20.81733 91.37733 30877 ft 549 kts 128°
2026-04-26 05:46 20.77435 91.44430 30877 ft 549 kts 128°
2026-04-26 05:47 20.73110 91.51162 30880 ft 548 kts 128°
2026-04-26 05:47 20.68812 91.57843 30883 ft 549 kts 127°
2026-04-26 05:48 20.64503 91.64535 30882 ft 546 kts 127°
2026-04-26 05:48 20.60173 91.71250 30871 ft 547 kts 128°
2026-04-26 05:49 20.53692 91.81287 30867 ft 548 kts 128°
2026-04-26 05:50 20.49400 91.87926 30864 ft 546 kts 128°
2026-04-26 05:50 20.45084 91.94593 30864 ft 547 kts 128°
2026-04-26 05:51 20.40764 92.01252 30866 ft 545 kts 128°
2026-04-26 05:51 20.36416 92.07843 30868 ft 545 kts 128°
2026-04-26 05:52 20.32048 92.14451 30868 ft 544 kts 128°
2026-04-26 05:52 20.27689 92.21043 30867 ft 543 kts 128°
2026-04-26 05:53 20.23354 92.27591 30868 ft 544 kts 128°
2026-04-26 05:53 20.18999 92.34163 30871 ft 543 kts 128°
2026-04-26 05:54 20.14656 92.40711 30872 ft 542 kts 128°
2026-04-26 05:54 20.10346 92.47201 30874 ft 541 kts 128°
2026-04-26 05:55 20.06001 92.53738 30871 ft 541 kts 128°
2026-04-26 05:55 20.01666 92.60253 30877 ft 541 kts 128°
2026-04-26 05:56 19.97302 92.66804 30867 ft 542 kts 128°
2026-04-26 05:56 19.92951 92.73328 30866 ft 540 kts 128°
2026-04-26 05:57 19.88631 92.79800 30865 ft 540 kts 128°
2026-04-26 05:57 19.84274 92.86319 30866 ft 540 kts 128°
2026-04-26 05:58 19.79944 92.92790 30866 ft 540 kts 128°
2026-04-26 05:58 19.75604 92.99270 30868 ft 539 kts 128°
2026-04-26 05:59 19.71251 93.05762 30866 ft 538 kts 128°
2026-04-26 05:59 19.66934 93.12193 30866 ft 537 kts 128°
2026-04-26 06:00 19.62596 93.18650 30863 ft 535 kts 128°
2026-04-26 06:00 19.58291 93.25050 30864 ft 535 kts 128°
2026-04-26 06:01 19.53958 93.31484 30875 ft 535 kts 128°
2026-04-26 06:01 19.49647 93.37878 30872 ft 537 kts 128°
2026-04-26 06:02 19.45319 93.44292 30864 ft 536 kts 127°
2026-04-26 06:02 19.40996 93.50693 30868 ft 535 kts 128°
2026-04-26 06:03 19.36671 93.57088 30867 ft 536 kts 128°
2026-04-26 06:03 19.32314 93.63524 30865 ft 535 kts 127°
2026-04-26 06:04 19.27995 93.69899 30867 ft 533 kts 128°
2026-04-26 06:04 19.23671 93.76272 30864 ft 534 kts 128°
2026-04-26 06:05 19.19361 93.82619 30863 ft 533 kts 128°
2026-04-26 06:05 19.15025 93.88998 30861 ft 534 kts 128°
2026-04-26 06:06 19.10705 93.95347 30867 ft 533 kts 128°
2026-04-26 06:06 19.06379 94.01696 30868 ft 532 kts 128°
2026-04-26 06:07 19.02072 94.08014 30866 ft 531 kts 128°
2026-04-26 06:07 18.97738 94.14362 30854 ft 531 kts 127°
2026-04-26 06:08 18.93431 94.20667 30841 ft 533 kts 128°
2026-04-26 06:08 18.89107 94.26990 30846 ft 531 kts 128°
2026-04-26 06:09 18.84779 94.33312 30869 ft 533 kts 127°
2026-04-26 06:09 18.80451 94.39625 30888 ft 531 kts 127°
2026-04-26 06:10 18.76122 94.45937 30909 ft 532 kts 127°
2026-04-26 06:10 18.71780 94.52260 30925 ft 533 kts 127°
2026-04-26 06:11 18.67423 94.58598 30939 ft 533 kts 127°
2026-04-26 06:11 18.63080 94.64910 30959 ft 532 kts 128°
2026-04-26 06:12 18.58721 94.71239 30969 ft 534 kts 128°
2026-04-26 06:12 18.54465 94.77604 30989 ft 533 kts 126°
2026-04-26 06:13 18.50280 94.84006 30953 ft 533 kts 126°
2026-04-26 06:13 18.46064 94.90437 30911 ft 533 kts 126°
2026-04-26 06:14 18.41853 94.96847 30868 ft 533 kts 126°
2026-04-26 06:14 18.37646 95.03241 30835 ft 533 kts 126°
2026-04-26 06:15 18.33418 95.09658 30833 ft 533 kts 126°
2026-04-26 06:15 18.29198 95.16037 30829 ft 533 kts 128°
2026-04-26 06:16 18.24756 95.22303 30824 ft 532 kts 128°
2026-04-26 06:16 18.20315 95.28533 30815 ft 533 kts 128°
2026-04-26 06:17 18.15879 95.34762 30817 ft 533 kts 128°
2026-04-26 06:17 18.11447 95.40990 30822 ft 533 kts 129°
2026-04-26 06:18 18.07012 95.47219 30826 ft 533 kts 128°
2026-04-26 06:18 18.02565 95.53461 30828 ft 532 kts 129°
2026-04-26 06:19 17.98116 95.59701 30828 ft 533 kts 128°
2026-04-26 06:19 17.93699 95.65891 30828 ft 532 kts 129°
2026-04-26 06:20 17.89242 95.72134 30820 ft 531 kts 129°
2026-04-26 06:20 17.84809 95.78335 30824 ft 532 kts 129°
2026-04-26 06:21 17.80386 95.84518 30828 ft 532 kts 129°
2026-04-26 06:21 17.75964 95.90692 30825 ft 532 kts 129°
2026-04-26 06:22 17.71525 95.96886 30820 ft 531 kts 129°
2026-04-26 06:22 17.67077 96.03085 30822 ft 532 kts 129°
2026-04-26 06:23 17.62613 96.09302 30823 ft 532 kts 129°
2026-04-26 06:23 17.58199 96.15444 30829 ft 530 kts 129°
2026-04-26 06:24 17.53767 96.21605 30825 ft 529 kts 129°
2026-04-26 06:24 17.49318 96.27782 30830 ft 531 kts 129°
2026-04-26 06:25 17.44872 96.33951 30827 ft 530 kts 129°
2026-04-26 06:25 17.40459 96.40070 30824 ft 530 kts 129°
2026-04-26 06:26 17.36021 96.46215 30831 ft 528 kts 128°
2026-04-26 06:26 17.31566 96.52379 30835 ft 530 kts 129°
2026-04-26 06:27 17.27077 96.58474 30835 ft 528 kts 129°
2026-04-26 06:27 17.22602 96.64523 30835 ft 528 kts 129°
2026-04-26 06:28 17.18115 96.70585 30830 ft 528 kts 129°
2026-04-26 06:28 17.13619 96.76656 30836 ft 528 kts 129°
2026-04-26 06:29 17.09136 96.82707 30837 ft 526 kts 129°
2026-04-26 06:29 17.04647 96.88761 30839 ft 527 kts 129°
2026-04-26 06:30 17.00167 96.94799 30842 ft 528 kts 129°
2026-04-26 06:30 16.95676 97.00844 30845 ft 527 kts 129°
2026-04-26 06:31 16.91178 97.06896 30849 ft 527 kts 129°
2026-04-26 06:31 16.86691 97.12927 30848 ft 526 kts 129°
2026-04-26 06:32 16.82221 97.18930 30846 ft 526 kts 129°
2026-04-26 06:32 16.77715 97.24976 30845 ft 525 kts 129°
2026-04-26 06:33 16.73224 97.30996 30848 ft 525 kts 129°
2026-04-26 06:33 16.68753 97.36985 30850 ft 524 kts 129°
2026-04-26 06:34 16.64290 97.42957 30843 ft 525 kts 129°
2026-04-26 06:34 16.59798 97.48964 30850 ft 525 kts 129°
2026-04-26 06:35 16.55333 97.54929 30850 ft 524 kts 129°
2026-04-26 06:35 16.50812 97.60965 30842 ft 525 kts 129°
2026-04-26 06:36 16.46330 97.66943 30832 ft 525 kts 129°
2026-04-26 06:36 16.41837 97.72930 30820 ft 525 kts 129°
2026-04-26 06:37 16.37294 97.78872 30818 ft 525 kts 134°
2026-04-26 06:37 16.31955 97.84003 30822 ft 523 kts 141°
2026-04-26 06:38 16.26483 97.88931 30817 ft 522 kts 141°
2026-04-26 06:38 16.20997 97.93868 30819 ft 521 kts 141°
2026-04-26 06:39 16.15496 97.98813 30817 ft 521 kts 140°
2026-04-26 06:39 16.10034 98.03719 30821 ft 521 kts 141°
2026-04-26 06:40 16.04515 98.08674 30832 ft 522 kts 141°
2026-04-26 06:40 15.99008 98.13614 30852 ft 522 kts 141°
2026-04-26 06:41 15.93536 98.18519 30862 ft 522 kts 140°
2026-04-26 06:41 15.88017 98.23462 30860 ft 523 kts 140°
2026-04-26 06:42 15.82531 98.28373 30859 ft 520 kts 140°
2026-04-26 06:42 15.77050 98.33276 30857 ft 521 kts 140°
2026-04-26 06:43 15.71547 98.38193 30868 ft 522 kts 140°
2026-04-26 06:43 15.66060 98.43093 30899 ft 522 kts 140°
2026-04-26 06:44 15.60549 98.48011 30940 ft 522 kts 140°
2026-04-26 06:44 15.55053 98.52913 30977 ft 523 kts 140°
2026-04-26 06:45 15.49570 98.57803 30992 ft 522 kts 139°
2026-04-26 06:45 15.44689 98.63409 31007 ft 522 kts 129°
2026-04-26 06:46 15.40117 98.69267 31010 ft 522 kts 129°
2026-04-26 06:46 15.35562 98.75095 31027 ft 522 kts 129°
2026-04-26 06:47 15.30973 98.80959 31047 ft 523 kts 129°
2026-04-26 06:47 15.26382 98.86817 31053 ft 524 kts 129°
2026-04-26 06:48 15.21806 98.92651 31042 ft 522 kts 129°
2026-04-26 06:48 15.17227 98.98483 31034 ft 522 kts 129°
2026-04-26 06:49 15.12659 99.04295 31016 ft 522 kts 129°
2026-04-26 06:49 15.08093 99.10102 31008 ft 523 kts 129°
2026-04-26 06:50 15.03477 99.15967 31002 ft 522 kts 129°
2026-04-26 06:50 14.98925 99.21745 31014 ft 522 kts 129°
2026-04-26 06:51 14.94317 99.27592 31007 ft 522 kts 129°
2026-04-26 06:51 14.87421 99.36333 30952 ft 521 kts 129°
2026-04-26 06:52 14.82831 99.42144 30919 ft 523 kts 129°
2026-04-26 06:52 14.78257 99.47933 30889 ft 521 kts 129°
2026-04-26 06:53 14.73683 99.53716 30867 ft 521 kts 129°
2026-04-26 06:53 14.69086 99.59525 30851 ft 521 kts 129°
2026-04-26 06:54 14.64491 99.65327 30836 ft 522 kts 129°
2026-04-26 06:54 14.59925 99.71087 30819 ft 520 kts 129°
2026-04-26 06:55 14.55323 99.76889 30813 ft 522 kts 129°
2026-04-26 06:55 14.50767 99.82629 30804 ft 521 kts 129°
2026-04-26 06:56 14.46268 99.88503 30799 ft 520 kts 122°
2026-04-26 06:56 14.43217 99.95236 30797 ft 517 kts 105°
2026-04-26 06:57 14.41388 100.02324 30796 ft 505 kts 102°
2026-04-26 06:57 14.40526 100.05770 30795 ft 489 kts 103°
2026-04-26 06:57 14.39699 100.09080 30794 ft 474 kts 102°
2026-04-26 06:58 14.38055 100.15664 30803 ft 478 kts 102°
2026-04-26 06:58 14.36402 100.22276 30800 ft 476 kts 102°
2026-04-26 06:59 14.34763 100.28820 30803 ft 475 kts 102°
2026-04-26 06:59 14.33110 100.35418 30803 ft 475 kts 102°
2026-04-26 07:00 14.31463 100.41982 30804 ft 474 kts 102°
2026-04-26 07:00 14.29790 100.48574 30800 ft 478 kts 105°
2026-04-26 07:01 14.28587 100.51783 30808 ft 491 kts 114°
2026-04-26 07:01 14.26850 100.54877 30812 ft 504 kts 123°
2026-04-26 07:01 14.24639 100.57716 30811 ft 516 kts 133°
2026-04-26 07:01 14.21992 100.60240 30811 ft 525 kts 141°
2026-04-26 07:02 14.15866 100.64259 30820 ft 519 kts 150°
2026-04-26 07:02 14.12760 100.66105 30819 ft 503 kts 150°
2026-04-26 07:02 14.09797 100.67864 30817 ft 487 kts 150°
2026-04-26 07:03 14.06899 100.69583 30818 ft 471 kts 150°
2026-04-26 07:03 14.04147 100.71323 30816 ft 454 kts 144°
2026-04-26 07:03 14.01730 100.73299 30817 ft 438 kts 136°
2026-04-26 07:03 13.99629 100.75510 30818 ft 420 kts 129°
2026-04-26 07:04 13.97874 100.77801 30821 ft 403 kts 123°
2026-04-26 07:04 13.96346 100.80209 30837 ft 398 kts 118°
2026-04-26 07:04 13.93924 100.85433 30840 ft 407 kts 104°
2026-04-26 07:05 13.93322 100.88191 30802 ft 393 kts 93°
2026-04-26 07:05 13.93200 100.90951 30681 ft 380 kts 83°
2026-04-26 07:05 13.93533 100.93629 30519 ft 372 kts 73°
2026-04-26 07:05 13.94281 100.96146 30349 ft 368 kts 63°
2026-04-26 07:06 13.95402 100.98460 30186 ft 362 kts 54°
2026-04-26 07:06 13.96877 101.00555 30019 ft 358 kts 45°
2026-04-26 07:06 13.98626 101.02340 29858 ft 353 kts 36°
2026-04-26 07:06 14.00617 101.03805 29700 ft 347 kts 27°
2026-04-26 07:07 14.02757 101.04905 29542 ft 345 kts 18°
2026-04-26 07:07 14.05046 101.05633 29378 ft 341 kts
2026-04-26 07:07 14.07377 101.05672 29189 ft 336 kts 348°
2026-04-26 07:07 14.09591 101.04874 28987 ft 334 kts 332°
2026-04-26 07:08 14.11622 101.03677 28829 ft 336 kts 330°
2026-04-26 07:08 14.13628 101.02451 28694 ft 337 kts 330°
2026-04-26 07:08 14.15630 101.01225 28568 ft 337 kts 330°
2026-04-26 07:08 14.17650 100.99989 28440 ft 336 kts 330°
2026-04-26 07:09 14.19668 100.98753 28307 ft 335 kts 330°
2026-04-26 07:09 14.21673 100.97524 28171 ft 335 kts 330°
2026-04-26 07:09 14.23670 100.96301 28038 ft 336 kts 330°
2026-04-26 07:09 14.25689 100.95064 27903 ft 335 kts 330°
2026-04-26 07:10 14.31709 100.91377 27505 ft 335 kts 330°
2026-04-26 07:11 14.35700 100.88932 27240 ft 333 kts 330°
2026-04-26 07:11 14.37709 100.87701 27107 ft 332 kts 330°
2026-04-26 07:11 14.39683 100.86492 26973 ft 332 kts 330°
2026-04-26 07:11 14.41761 100.85454 26819 ft 331 kts 343°
2026-04-26 07:12 14.44039 100.85066 26645 ft 329 kts 357°
2026-04-26 07:12 14.46285 100.84772 26471 ft 330 kts 342°
2026-04-26 07:12 14.48372 100.83798 26025 ft 333 kts 326°
2026-04-26 07:12 14.50197 100.82268 25069 ft 349 kts 318°
2026-04-26 07:13 14.52017 100.80502 24070 ft 363 kts 317°
2026-04-26 07:13 14.53840 100.78706 23549 ft 362 kts 317°
2026-04-26 07:13 14.55617 100.76950 23336 ft 352 kts 317°
2026-04-26 07:13 14.57385 100.75201 23021 ft 347 kts 317°
2026-04-26 07:14 14.59113 100.73496 22569 ft 346 kts 317°
2026-04-26 07:14 14.60840 100.71790 22099 ft 345 kts 317°
2026-04-26 07:14 14.62590 100.70064 21699 ft 342 kts 317°
2026-04-26 07:14 14.64302 100.68383 21278 ft 340 kts 317°
2026-04-26 07:15 14.66015 100.66704 20860 ft 338 kts 317°
2026-04-26 07:15 14.67719 100.65037 20449 ft 336 kts 317°
2026-04-26 07:15 14.69411 100.63382 20040 ft 335 kts 317°
2026-04-26 07:15 14.71100 100.61732 19624 ft 333 kts 317°
2026-04-26 07:16 14.72762 100.60111 19207 ft 332 kts 317°
2026-04-26 07:16 14.74445 100.58472 18805 ft 330 kts 317°
2026-04-26 07:16 14.76113 100.56848 18412 ft 328 kts 317°
2026-04-26 07:16 14.77759 100.55249 18030 ft 326 kts 317°
2026-04-26 07:17 14.79415 100.53643 17631 ft 324 kts 317°
2026-04-26 07:17 14.81062 100.52047 17226 ft 323 kts 317°
2026-04-26 07:17 14.82708 100.50455 16814 ft 323 kts 317°
2026-04-26 07:17 14.84350 100.48872 16203 ft 330 kts 317°
2026-04-26 07:18 14.85928 100.47118 15183 ft 350 kts 304°
2026-04-26 07:18 14.86933 100.44781 14223 ft 372 kts 282°
2026-04-26 07:18 14.86976 100.42071 13813 ft 379 kts 258°
2026-04-26 07:18 14.85974 100.39557 13775 ft 381 kts 236°
2026-04-26 07:19 14.84255 100.37543 13645 ft 374 kts 223°
2026-04-26 07:19 14.82178 100.35877 13099 ft 375 kts 213°
2026-04-26 07:19 14.79870 100.34663 12542 ft 376 kts 201°
2026-04-26 07:19 14.77367 100.33933 12064 ft 374 kts 190°
2026-04-26 07:20 14.74761 100.33719 11572 ft 373 kts 179°
2026-04-26 07:20 14.72197 100.34028 11100 ft 371 kts 167°
2026-04-26 07:20 14.69769 100.34886 10625 ft 369 kts 154°
2026-04-26 07:20 14.67556 100.36254 10139 ft 368 kts 145°
2026-04-26 07:21 14.65486 100.37766 9736 ft 363 kts 144°
2026-04-26 07:21 14.63458 100.39259 9628 ft 350 kts 144°
2026-04-26 07:21 14.61536 100.40675 9609 ft 335 kts 144°
2026-04-26 07:21 14.59659 100.42056 9600 ft 320 kts 144°
2026-04-26 07:22 14.57890 100.43358 9591 ft 305 kts 144°
2026-04-26 07:22 14.56215 100.44590 9580 ft 291 kts 144°
2026-04-26 07:22 14.54582 100.45792 9434 ft 282 kts 144°
2026-04-26 07:22 14.52966 100.46980 9087 ft 282 kts 144°
2026-04-26 07:23 14.51394 100.48136 8784 ft 281 kts 144°
2026-04-26 07:23 14.49789 100.49316 8508 ft 283 kts 144°
2026-04-26 07:23 14.48162 100.50513 8275 ft 291 kts 144°
2026-04-26 07:23 14.46511 100.51726 8039 ft 289 kts 144°
2026-04-26 07:24 14.44881 100.52924 7804 ft 286 kts 144°
2026-04-26 07:24 14.43246 100.54125 7568 ft 285 kts 144°
2026-04-26 07:24 14.41635 100.55308 7332 ft 283 kts 144°
2026-04-26 07:24 14.40037 100.56483 7099 ft 282 kts 144°
2026-04-26 07:25 14.38429 100.57663 6863 ft 281 kts 144°
2026-04-26 07:25 14.36847 100.58825 6631 ft 281 kts 144°
2026-04-26 07:25 14.35253 100.59995 6394 ft 279 kts 144°
2026-04-26 07:25 14.33667 100.61159 6161 ft 279 kts 144°
2026-04-26 07:26 14.32090 100.62316 5926 ft 277 kts 144°
2026-04-26 07:26 14.30510 100.63475 5690 ft 277 kts 144°
2026-04-26 07:26 14.28946 100.64623 5453 ft 274 kts 144°
2026-04-26 07:26 14.27391 100.65763 5223 ft 273 kts 144°
2026-04-26 07:27 14.25829 100.66908 4988 ft 274 kts 144°
2026-04-26 07:27 14.24281 100.68044 4755 ft 272 kts 144°
2026-04-26 07:27 14.22754 100.69163 4526 ft 270 kts 144°
2026-04-26 07:27 14.21210 100.70294 4295 ft 270 kts 144°
2026-04-26 07:28 14.19691 100.71407 4068 ft 270 kts 144°
2026-04-26 07:28 14.18153 100.72534 3955 ft 267 kts 144°
2026-04-26 07:28 14.16620 100.73657 3942 ft 270 kts 144°
2026-04-26 07:28 14.15092 100.74777 3938 ft 269 kts 144°
2026-04-26 07:29 14.13566 100.75894 3941 ft 271 kts 144°
2026-04-26 07:29 14.12033 100.77016 3941 ft 270 kts 144°
2026-04-26 07:29 14.10496 100.78142 3946 ft 271 kts 144°
2026-04-26 07:29 14.08955 100.79270 3944 ft 271 kts 145°
2026-04-26 07:30 14.07413 100.80399 3943 ft 269 kts 145°
2026-04-26 07:30 14.05876 100.81522 3945 ft 270 kts 144°
2026-04-26 07:30 14.04354 100.82636 3948 ft 270 kts 144°
2026-04-26 07:30 14.02802 100.83723 3937 ft 270 kts 153°
2026-04-26 07:31 14.00988 100.84194 3937 ft 269 kts 180°
2026-04-26 07:31 13.99126 100.83984 3728 ft 267 kts 190°
2026-04-26 07:31 13.97304 100.83536 3401 ft 269 kts 194°
2026-04-26 07:31 13.95500 100.83047 3145 ft 268 kts 194°
2026-04-26 07:32 13.93713 100.82560 2910 ft 266 kts 194°
2026-04-26 07:32 13.91909 100.82072 2647 ft 265 kts 194°
2026-04-26 07:32 13.90143 100.81595 2470 ft 261 kts 194°
2026-04-26 07:32 13.88370 100.81120 2447 ft 253 kts 194°
2026-04-26 07:33 13.86749 100.80687 2437 ft 225 kts 194°
2026-04-26 07:33 13.85325 100.80310 2435 ft 198 kts 194°
2026-04-26 07:33 13.84071 100.79985 2440 ft 173 kts 194°
2026-04-26 07:33 13.82919 100.79689 2445 ft 166 kts 194°
2026-04-26 07:34 13.81799 100.79399 2389 ft 168 kts 194°
2026-04-26 07:34 13.80682 100.79108 2181 ft 165 kts 194°
2026-04-26 07:34 13.79564 100.78816 1981 ft 164 kts 195°
2026-04-26 07:34 13.78433 100.78521 1776 ft 167 kts 195°
2026-04-26 07:35 13.77308 100.78225 1569 ft 165 kts 195°
2026-04-26 07:35 13.76202 100.77936 1364 ft 164 kts 194°
2026-04-26 07:35 13.75095 100.77647 1160 ft 163 kts 194°
2026-04-26 07:35 13.74000 100.77360 951 ft 162 kts 194°
2026-04-26 07:36 13.72908 100.77059 737 ft 162 kts 193°
2026-04-26 07:36 13.71813 100.76800 539 ft 161 kts 192°
2026-04-26 07:36 13.70712 100.76506 319 ft 162 kts 194°
2026-04-26 07:36 13.69629 100.76223 137 ft 161 kts 193°
2026-04-26 07:37 13.68542 100.75935 16 ft 151 kts 194°
2026-04-26 07:37 13.67644 100.75701 14 ft 116 kts 195°
2026-04-26 07:37 13.66995 100.75530 14 ft 63 kts 193°
2026-04-26 07:37 13.66809 100.75479 14 ft 14 kts 208°
2026-04-26 07:38 13.66739 100.75415 14 ft 12 kts 229°
2026-04-26 07:38 13.66685 100.75347 14 ft 11 kts 237°
2026-04-26 07:38 13.66694 100.75292 14 ft 8 kts 340°
2026-04-26 07:38 13.66752 100.75291 14 ft 8 kts
2026-04-26 07:39 13.66805 100.75305 14 ft 7 kts 14°
2026-04-26 07:39 13.66861 100.75319 14 ft 8 kts 13°
2026-04-26 07:39 13.66912 100.75331 14 ft 7 kts 13°
2026-04-26 07:39 13.66970 100.75346 14 ft 10 kts 13°
2026-04-26 07:40 13.67047 100.75365 14 ft 11 kts 14°
2026-04-26 07:40 13.67120 100.75384 14 ft 10 kts 15°
2026-04-26 07:40 13.67189 100.75404 14 ft 11 kts 15°
2026-04-26 07:40 13.67285 100.75430 14 ft 17 kts 14°
2026-04-26 07:41 13.67425 100.75466 14 ft 23 kts 14°
2026-04-26 07:41 13.67602 100.75513 14 ft 28 kts 14°
2026-04-26 07:41 13.67812 100.75567 14 ft 34 kts 14°
2026-04-26 07:41 13.68049 100.75629 14 ft 34 kts 14°
2026-04-26 07:42 13.68274 100.75688 14 ft 29 kts 14°
2026-04-26 07:42 13.68401 100.75717 14 ft 13 kts 356°
2026-04-26 07:42 13.68460 100.75657 14 ft 12 kts 287°
2026-04-26 07:42 13.68482 100.75577 14 ft 11 kts 285°
2026-04-26 07:43 13.68501 100.75500 14 ft 11 kts 285°
2026-04-26 07:43 13.68565 100.75459 14 ft 11 kts
2026-04-26 07:43 13.68643 100.75473 14 ft 10 kts 14°
2026-04-26 07:43 13.68712 100.75491 14 ft 8 kts 14°
2026-04-26 07:44 13.68751 100.75484 14 ft 5 kts 310°
2026-04-26 07:44 13.68767 100.75450 14 ft 5 kts 289°
2026-04-26 07:44 13.68775 100.75420 14 ft 2 kts 284°
2026-04-26 07:44 13.68776 100.75415 14 ft 0 kts 284°
2026-04-26 07:45 13.68777 100.75414 14 ft 0 kts 284°